BAW8DS KLAX-EGLL

Flight info

Callsign BAW8DS
Flight time N/A
Altitude 32000
Route LADYJ4 CSTRO DCT CANDA/N0481F330 DCT KU60K DCT KU81O DCT KU03Q DCT KU15S DCT DURUR Q817 KENRU DCT YEK/N0477F350 DCT 63N090W 66N080W 67N070W/M083F350 DCT CANEL DCT 68N060W 68N050W 68N040W/M083F370 67N030W 6430N02000W DCT BALIX/N0472F370 DCT NINEX DCT AKOMU DCT VAMEB/N0472F350 DCT NUGRA NUGRA2H
Aircraft B77W/H-SDE1E3FGHIJ3J4J5J6M1M2P2RWXYZ/LB1D1

Departure

Time 2026-04-25 00:06
Airport Los Angeles International Airport (KLAX)

Arrival

Time N/A
Airport London Heathrow Airport (EGLL)
Time Latitude Longitude Altitude Speed Heading
2026-04-24 23:35 33.94155 -118.40937 99 ft 0 kts 262°
2026-04-24 23:46 33.94156 -118.40923 98 ft 2 kts 264°
2026-04-24 23:46 33.94158 -118.40904 97 ft 2 kts 264°
2026-04-24 23:46 33.94158 -118.40885 97 ft 2 kts 279°
2026-04-24 23:47 33.94153 -118.40866 97 ft 2 kts 300°
2026-04-24 23:47 33.94143 -118.40850 97 ft 2 kts 323°
2026-04-24 23:47 33.94128 -118.40841 96 ft 2 kts 343°
2026-04-24 23:47 33.94112 -118.40836 97 ft 2 kts 354°
2026-04-24 23:48 33.94094 -118.40834 97 ft 3 kts 354°
2026-04-24 23:48 33.94076 -118.40832 97 ft 3 kts 354°
2026-04-24 23:48 33.94058 -118.40829 97 ft 3 kts 354°
2026-04-24 23:48 33.94040 -118.40827 97 ft 3 kts 354°
2026-04-24 23:49 33.94021 -118.40825 97 ft 3 kts 354°
2026-04-24 23:49 33.94003 -118.40822 97 ft 3 kts 353°
2026-04-24 23:49 33.93985 -118.40820 96 ft 3 kts 353°
2026-04-24 23:49 33.93967 -118.40817 97 ft 3 kts 353°
2026-04-24 23:50 33.93948 -118.40814 97 ft 3 kts 353°
2026-04-24 23:50 33.93930 -118.40812 96 ft 3 kts 353°
2026-04-24 23:50 33.93912 -118.40808 96 ft 3 kts 343°
2026-04-24 23:50 33.93895 -118.40800 97 ft 3 kts 322°
2026-04-24 23:51 33.93884 -118.40783 96 ft 3 kts 288°
2026-04-24 23:51 33.93882 -118.40762 99 ft 3 kts 257°
2026-04-24 23:51 33.93886 -118.40740 97 ft 3 kts 263°
2026-04-24 23:51 33.93888 -118.40719 96 ft 2 kts 263°
2026-04-24 23:52 33.93888 -118.40717 97 ft 0 kts 263°
2026-04-24 23:55 33.93887 -118.40723 98 ft 2 kts 263°
2026-04-24 23:55 33.93884 -118.40756 99 ft 6 kts 263°
2026-04-24 23:56 33.93878 -118.40820 98 ft 9 kts 263°
2026-04-24 23:56 33.93870 -118.40901 99 ft 10 kts 263°
2026-04-24 23:56 33.93861 -118.40983 100 ft 10 kts 263°
2026-04-24 23:56 33.93853 -118.41063 99 ft 7 kts 263°
2026-04-24 23:57 33.93849 -118.41120 98 ft 7 kts 275°
2026-04-24 23:57 33.93880 -118.41160 99 ft 7 kts 338°
2026-04-24 23:57 33.93928 -118.41171 100 ft 7 kts 352°
2026-04-24 23:57 33.93985 -118.41179 99 ft 9 kts 353°
2026-04-24 23:58 33.94051 -118.41189 98 ft 10 kts 353°
2026-04-24 23:58 33.94125 -118.41200 98 ft 11 kts 353°
2026-04-24 23:58 33.94204 -118.41212 98 ft 12 kts 353°
2026-04-24 23:58 33.94290 -118.41224 100 ft 13 kts 353°
2026-04-24 23:59 33.94376 -118.41237 99 ft 13 kts 353°
2026-04-24 23:59 33.94463 -118.41250 98 ft 13 kts 353°
2026-04-24 23:59 33.94549 -118.41263 98 ft 13 kts 353°
2026-04-24 23:59 33.94635 -118.41275 98 ft 13 kts 353°
2026-04-25 00:00 33.94719 -118.41288 98 ft 10 kts 353°
2026-04-25 00:00 33.94770 -118.41286 99 ft 7 kts 20°
2026-04-25 00:00 33.94792 -118.41258 102 ft 7 kts 63°
2026-04-25 00:00 33.94804 -118.41175 102 ft 9 kts 83°
2026-04-25 00:01 33.94813 -118.41086 99 ft 12 kts 83°
2026-04-25 00:01 33.94823 -118.40985 100 ft 12 kts 83°
2026-04-25 00:01 33.94834 -118.40884 101 ft 12 kts 83°
2026-04-25 00:01 33.94841 -118.40817 99 ft 12 kts 83°
2026-04-25 00:02 33.94851 -118.40716 99 ft 12 kts 83°
2026-04-25 00:02 33.94861 -118.40615 101 ft 12 kts 83°
2026-04-25 00:02 33.94872 -118.40514 100 ft 12 kts 83°
2026-04-25 00:02 33.94882 -118.40413 100 ft 12 kts 83°
2026-04-25 00:03 33.94893 -118.40312 99 ft 12 kts 83°
2026-04-25 00:03 33.94903 -118.40211 102 ft 12 kts 83°
2026-04-25 00:03 33.94913 -118.40110 100 ft 12 kts 83°
2026-04-25 00:03 33.94924 -118.40009 98 ft 12 kts 83°
2026-04-25 00:04 33.94947 -118.39934 98 ft 8 kts 46°
2026-04-25 00:04 33.94993 -118.39915 101 ft 7 kts
2026-04-25 00:04 33.95031 -118.39923 99 ft 4 kts 325°
2026-04-25 00:04 33.95041 -118.39964 101 ft 2 kts 269°
2026-04-25 00:05 33.95039 -118.39977 101 ft 1 kts 263°
2026-04-25 00:05 33.95037 -118.39999 102 ft 12 kts 263°
2026-04-25 00:06 33.94998 -118.40373 102 ft 83 kts 263°
2026-04-25 00:06 33.94898 -118.41358 104 ft 152 kts 263°
2026-04-25 00:06 33.94736 -118.42800 371 ft 181 kts 262°
2026-04-25 00:06 33.94587 -118.44313 1070 ft 182 kts 262°
2026-04-25 00:07 33.94443 -118.45847 1740 ft 186 kts 262°
2026-04-25 00:07 33.94311 -118.47480 1939 ft 206 kts 266°
2026-04-25 00:07 33.94255 -118.49273 2183 ft 225 kts 266°
2026-04-25 00:07 33.94205 -118.51231 2503 ft 240 kts 265°
2026-04-25 00:08 33.94064 -118.53288 2963 ft 251 kts 263°
2026-04-25 00:08 33.93885 -118.55421 3482 ft 260 kts 263°
2026-04-25 00:08 33.93707 -118.57602 4156 ft 262 kts 263°
2026-04-25 00:08 33.93533 -118.59793 4869 ft 262 kts 265°
2026-04-25 00:09 33.93758 -118.61953 5466 ft 266 kts 294°
2026-04-25 00:09 33.94884 -118.63741 6046 ft 275 kts 319°
2026-04-25 00:09 33.96509 -118.64922 6670 ft 279 kts 335°
2026-04-25 00:09 33.98382 -118.65538 7287 ft 283 kts 355°
2026-04-25 00:10 34.00361 -118.65441 7823 ft 288 kts
2026-04-25 00:10 34.02365 -118.65232 8433 ft 290 kts
2026-04-25 00:10 34.04383 -118.65022 9095 ft 292 kts
2026-04-25 00:10 34.06410 -118.64821 9761 ft 293 kts
2026-04-25 00:11 34.08462 -118.64627 10253 ft 300 kts
2026-04-25 00:11 34.10615 -118.64436 10411 ft 321 kts
2026-04-25 00:11 34.12912 -118.64236 10569 ft 341 kts
2026-04-25 00:11 34.15351 -118.64026 10732 ft 362 kts
2026-04-25 00:12 34.17924 -118.63805 11079 ft 377 kts
2026-04-25 00:12 34.20568 -118.63579 11622 ft 385 kts
2026-04-25 00:12 34.23267 -118.63406 12293 ft 389 kts 356°
2026-04-25 00:12 34.25980 -118.63584 13044 ft 391 kts 349°
2026-04-25 00:13 34.28663 -118.64146 13781 ft 392 kts 344°
2026-04-25 00:13 34.31353 -118.64792 14463 ft 396 kts 344°
2026-04-25 00:13 34.34081 -118.65443 15150 ft 400 kts 344°
2026-04-25 00:13 34.36779 -118.66073 15797 ft 404 kts 343°
2026-04-25 00:14 34.39553 -118.66710 16484 ft 407 kts 343°
2026-04-25 00:14 34.42344 -118.67345 17220 ft 409 kts 343°
2026-04-25 00:14 34.45165 -118.67948 17882 ft 414 kts 344°
2026-04-25 00:14 34.48023 -118.68504 18467 ft 418 kts 345°
2026-04-25 00:15 34.50915 -118.69051 19056 ft 421 kts 344°
2026-04-25 00:15 34.53817 -118.69603 19635 ft 424 kts 344°
2026-04-25 00:15 34.56748 -118.70167 20231 ft 427 kts 343°
2026-04-25 00:15 34.59682 -118.70737 20847 ft 429 kts 343°
2026-04-25 00:16 34.62637 -118.71315 21489 ft 431 kts 343°
2026-04-25 00:16 34.65617 -118.71898 22054 ft 434 kts 343°
2026-04-25 00:16 34.68587 -118.72523 22610 ft 432 kts 339°
2026-04-25 00:16 34.71465 -118.73501 23157 ft 427 kts 333°
2026-04-25 00:17 34.74198 -118.74786 23643 ft 425 kts 328°
2026-04-25 00:17 34.76829 -118.76382 24073 ft 422 kts 323°
2026-04-25 00:17 34.79396 -118.78152 24475 ft 425 kts 322°
2026-04-25 00:17 34.81972 -118.79948 24870 ft 428 kts 322°
2026-04-25 00:18 34.84567 -118.81757 25301 ft 431 kts 323°
2026-04-25 00:18 34.87168 -118.83565 25716 ft 433 kts 322°
2026-04-25 00:18 34.89796 -118.85387 26136 ft 436 kts 322°
2026-04-25 00:18 34.92446 -118.87215 26573 ft 439 kts 323°
2026-04-25 00:19 34.95112 -118.89052 26958 ft 442 kts 323°
2026-04-25 00:19 34.97798 -118.90902 27341 ft 445 kts 323°
2026-04-25 00:19 35.00495 -118.92763 27741 ft 447 kts 322°
2026-04-25 00:19 35.03211 -118.94637 28117 ft 449 kts 322°
2026-04-25 00:20 35.05941 -118.96522 28453 ft 451 kts 322°
2026-04-25 00:20 35.08645 -118.98392 28781 ft 453 kts 322°
2026-04-25 00:20 35.11394 -119.00294 29091 ft 456 kts 322°
2026-04-25 00:20 35.14162 -119.02211 29397 ft 458 kts 322°
2026-04-25 00:21 35.16935 -119.04132 29777 ft 457 kts 322°
2026-04-25 00:21 35.19700 -119.06047 30214 ft 456 kts 322°
2026-04-25 00:21 35.22457 -119.07959 30572 ft 455 kts 322°
2026-04-25 00:21 35.25211 -119.09872 30890 ft 455 kts 322°
2026-04-25 00:22 35.27956 -119.11782 31194 ft 454 kts 321°
2026-04-25 00:22 35.30704 -119.13694 31509 ft 454 kts 321°
2026-04-25 00:22 35.33450 -119.15607 31791 ft 454 kts 321°
2026-04-25 00:22 35.36184 -119.17516 31820 ft 458 kts 321°
2026-04-25 00:23 35.41785 -119.21231 31866 ft 462 kts 330°
2026-04-25 00:23 35.44937 -119.22291 31876 ft 477 kts 341°
2026-04-25 00:23 35.48293 -119.22656 31878 ft 491 kts 351°
2026-04-25 00:24 35.51735 -119.22237 31871 ft 503 kts
2026-04-25 00:24 35.55176 -119.21431 31887 ft 505 kts
2026-04-25 00:24 35.62087 -119.19710 31912 ft 507 kts
2026-04-25 00:25 35.69015 -119.18037 31885 ft 507 kts
2026-04-25 00:25 35.75943 -119.16435 31876 ft 506 kts
2026-04-25 00:26 35.82868 -119.14857 31901 ft 505 kts
2026-04-25 00:26 35.89727 -119.13292 31912 ft 504 kts
2026-04-25 00:27 35.96652 -119.11705 31903 ft 502 kts
2026-04-25 00:27 36.03510 -119.10128 31904 ft 501 kts
2026-04-25 00:28 36.10313 -119.08563 31909 ft 500 kts
2026-04-25 00:28 36.17142 -119.06988 31911 ft 499 kts
2026-04-25 00:29 36.23958 -119.05413 31915 ft 498 kts
2026-04-25 00:29 36.30785 -119.03835 31936 ft 497 kts
2026-04-25 00:30 36.37604 -119.02253 31911 ft 498 kts
2026-04-25 00:30 36.44406 -119.00672 31918 ft 497 kts
2026-04-25 00:31 36.51213 -118.99088 31918 ft 498 kts
2026-04-25 00:31 36.58009 -118.97506 31920 ft 497 kts
2026-04-25 00:32 36.64804 -118.95917 31927 ft 496 kts
2026-04-25 00:32 36.71538 -118.94340 31920 ft 495 kts
2026-04-25 00:33 36.78311 -118.92755 31935 ft 494 kts
2026-04-25 00:33 36.85053 -118.91172 31926 ft 492 kts
2026-04-25 00:34 36.91779 -118.89587 31933 ft 491 kts
2026-04-25 00:34 36.98497 -118.88005 31935 ft 491 kts
2026-04-25 00:35 37.05215 -118.86421 31915 ft 491 kts
2026-04-25 00:35 37.11926 -118.84834 31927 ft 491 kts
2026-04-25 00:36 37.18645 -118.83242 31925 ft 492 kts
2026-04-25 00:36 37.25325 -118.81657 31926 ft 491 kts
2026-04-25 00:37 37.32045 -118.80057 31924 ft 490 kts
2026-04-25 00:37 37.38630 -118.77670 31917 ft 500 kts 20°
2026-04-25 00:38 37.44592 -118.72991 32092 ft 513 kts 34°
2026-04-25 00:38 37.47332 -118.70163 32746 ft 505 kts 36°
2026-04-25 00:38 37.50037 -118.67331 32958 ft 507 kts 36°
2026-04-25 00:39 37.55495 -118.61637 32922 ft 509 kts 35°
2026-04-25 00:39 37.60965 -118.55991 32898 ft 506 kts 35°
2026-04-25 00:40 37.66423 -118.50392 32857 ft 504 kts 35°
2026-04-25 00:40 37.71862 -118.44813 32823 ft 503 kts 35°
2026-04-25 00:41 37.77261 -118.39262 32803 ft 504 kts 35°
2026-04-25 00:41 37.82697 -118.33656 32790 ft 504 kts 36°
2026-04-25 00:42 37.88119 -118.28057 32792 ft 502 kts 36°
2026-04-25 00:42 37.93523 -118.22462 32797 ft 502 kts 36°
2026-04-25 00:43 37.98930 -118.16852 32787 ft 502 kts 36°
2026-04-25 00:43 38.04331 -118.11240 32800 ft 501 kts 36°
2026-04-25 00:44 38.09693 -118.05657 32791 ft 501 kts 36°
2026-04-25 00:44 38.15075 -118.00042 32783 ft 500 kts 36°
2026-04-25 00:45 38.20452 -117.94420 32792 ft 500 kts 36°
2026-04-25 00:45 38.25824 -117.88793 32796 ft 500 kts 36°
2026-04-25 00:46 38.31196 -117.83156 32815 ft 499 kts 37°
2026-04-25 00:47 38.39197 -117.74738 32807 ft 499 kts 37°
2026-04-25 00:47 38.44551 -117.69090 32826 ft 499 kts 37°
2026-04-25 00:48 38.49898 -117.63439 32828 ft 498 kts 37°
2026-04-25 00:48 38.55236 -117.57788 32841 ft 498 kts 37°
2026-04-25 00:49 38.60573 -117.52125 32855 ft 498 kts 37°
2026-04-25 00:49 38.65871 -117.46491 32850 ft 498 kts 37°
2026-04-25 00:50 38.71192 -117.40823 32841 ft 497 kts 37°
2026-04-25 00:50 38.75612 -117.36105 32842 ft 496 kts 37°
2026-04-25 00:51 38.80929 -117.30420 32849 ft 496 kts 37°
2026-04-25 00:51 38.86231 -117.24740 32846 ft 496 kts 37°
2026-04-25 00:52 38.91497 -117.19088 32845 ft 495 kts 37°
2026-04-25 00:52 38.96778 -117.13406 32834 ft 494 kts 37°
2026-04-25 00:53 39.02052 -117.07722 32824 ft 494 kts 37°
2026-04-25 00:53 39.07309 -117.02044 32823 ft 494 kts 37°
2026-04-25 00:54 39.12570 -116.96351 32815 ft 494 kts 37°
2026-04-25 00:54 39.17829 -116.90647 32822 ft 495 kts 37°
2026-04-25 00:55 39.23101 -116.84920 32820 ft 496 kts 37°
2026-04-25 00:55 39.28379 -116.79174 32812 ft 497 kts 37°
2026-04-25 00:56 39.33630 -116.73444 32816 ft 498 kts 37°
2026-04-25 00:56 39.38933 -116.67647 32807 ft 499 kts 37°
2026-04-25 00:57 39.44229 -116.61844 32823 ft 499 kts 37°
2026-04-25 00:57 39.49529 -116.56026 32817 ft 499 kts 37°
2026-04-25 00:58 39.54800 -116.50228 32805 ft 500 kts 37°
2026-04-25 00:58 39.60103 -116.44383 32807 ft 501 kts 37°
2026-04-25 00:59 39.65413 -116.38517 32807 ft 501 kts 37°
2026-04-25 00:59 39.70719 -116.32642 32799 ft 501 kts 37°
2026-04-25 01:00 39.76024 -116.26757 32798 ft 502 kts 37°
2026-04-25 01:00 39.81334 -116.20855 32796 ft 502 kts 37°
2026-04-25 01:01 39.86610 -116.14976 32800 ft 503 kts 37°
2026-04-25 01:01 39.91922 -116.09046 32791 ft 503 kts 37°
2026-04-25 01:02 39.97237 -116.03099 32791 ft 503 kts 37°
2026-04-25 01:02 40.02564 -115.97186 32800 ft 503 kts 36°
2026-04-25 01:03 40.08000 -115.91408 32801 ft 504 kts 35°
2026-04-25 01:03 40.13459 -115.85647 32809 ft 505 kts 35°
2026-04-25 01:04 40.18918 -115.79843 32806 ft 506 kts 36°
2026-04-25 01:04 40.24371 -115.74004 32817 ft 507 kts 36°
2026-04-25 01:05 40.29831 -115.68138 32812 ft 508 kts 35°
2026-04-25 01:05 40.35295 -115.62257 32829 ft 509 kts 35°
2026-04-25 01:06 40.40777 -115.56347 32831 ft 510 kts 35°
2026-04-25 01:06 40.46231 -115.50453 32840 ft 511 kts 35°
2026-04-25 01:07 40.51727 -115.44502 32838 ft 512 kts 35°
2026-04-25 01:07 40.57225 -115.38534 32837 ft 513 kts 35°
2026-04-25 01:08 40.62721 -115.32556 32847 ft 512 kts 35°
2026-04-25 01:08 40.68206 -115.26579 32850 ft 512 kts 35°
2026-04-25 01:09 40.73698 -115.20577 32849 ft 513 kts 35°
2026-04-25 01:09 40.79201 -115.14550 32855 ft 514 kts 35°
2026-04-25 01:10 40.84675 -115.08544 32854 ft 515 kts 35°
2026-04-25 01:10 40.90189 -115.02482 32861 ft 515 kts 35°
2026-04-25 01:11 40.95705 -114.96399 32857 ft 515 kts 34°
2026-04-25 01:11 41.01204 -114.90322 32856 ft 515 kts 34°
2026-04-25 01:12 41.06670 -114.84270 32881 ft 515 kts 34°
2026-04-25 01:12 41.12159 -114.78180 32863 ft 514 kts 34°
2026-04-25 01:13 41.17639 -114.72085 32864 ft 513 kts 34°
2026-04-25 01:13 41.23099 -114.65997 32861 ft 512 kts 34°
2026-04-25 01:14 41.28546 -114.59910 32875 ft 511 kts 34°
2026-04-25 01:14 41.33981 -114.53825 32890 ft 511 kts 34°
2026-04-25 01:15 41.39422 -114.47719 32888 ft 511 kts 34°
2026-04-25 01:15 41.44862 -114.41600 32892 ft 511 kts 34°
2026-04-25 01:16 41.50264 -114.35510 32917 ft 513 kts 34°
2026-04-25 01:16 41.55715 -114.29352 32917 ft 514 kts 34°
2026-04-25 01:17 41.61180 -114.23161 32930 ft 516 kts 34°
2026-04-25 01:17 41.66663 -114.16936 32932 ft 517 kts 34°
2026-04-25 01:18 41.72151 -114.10690 32938 ft 518 kts 34°
2026-04-25 01:18 41.77638 -114.04433 32948 ft 517 kts 34°
2026-04-25 01:19 41.83116 -113.98170 32946 ft 517 kts 34°
2026-04-25 01:19 41.88580 -113.91907 32953 ft 516 kts 33°
2026-04-25 01:20 41.94037 -113.85640 32952 ft 515 kts 33°
2026-04-25 01:20 41.99473 -113.79381 32948 ft 514 kts 33°
2026-04-25 01:21 42.04856 -113.73169 32977 ft 513 kts 33°
2026-04-25 01:21 42.10278 -113.66901 32967 ft 514 kts 33°
2026-04-25 01:22 42.15707 -113.60610 32952 ft 515 kts 34°
2026-04-25 01:22 42.21142 -113.54293 32953 ft 516 kts 34°
2026-04-25 01:23 42.26582 -113.47955 32937 ft 517 kts 34°
2026-04-25 01:23 42.32021 -113.41605 32970 ft 517 kts 34°
2026-04-25 01:24 42.37464 -113.35235 32957 ft 517 kts 34°
2026-04-25 01:24 42.42899 -113.28859 32946 ft 517 kts 34°
2026-04-25 01:25 42.48332 -113.22469 32949 ft 517 kts 34°
2026-04-25 01:25 42.53759 -113.16073 32952 ft 517 kts 34°
2026-04-25 01:26 42.59157 -113.09696 32961 ft 517 kts 34°
2026-04-25 01:26 42.64583 -113.03269 32958 ft 517 kts 35°
2026-04-25 01:27 42.69992 -112.96847 32956 ft 515 kts 35°
2026-04-25 01:27 42.75381 -112.90433 32959 ft 514 kts 35°
2026-04-25 01:28 42.83400 -112.80859 32977 ft 512 kts 35°
2026-04-25 01:28 42.88747 -112.74459 32999 ft 511 kts 36°
2026-04-25 01:29 42.94074 -112.68065 32974 ft 509 kts 36°
2026-04-25 01:29 42.99375 -112.61688 32981 ft 507 kts 36°
2026-04-25 01:30 43.04659 -112.55316 32977 ft 506 kts 36°
2026-04-25 01:30 43.09933 -112.48942 33020 ft 505 kts 36°
2026-04-25 01:31 43.15169 -112.42598 33043 ft 505 kts 37°
2026-04-25 01:31 43.20429 -112.36211 33039 ft 505 kts 37°
2026-04-25 01:32 43.25681 -112.29815 33019 ft 504 kts 37°
2026-04-25 01:32 43.30929 -112.23410 33012 ft 503 kts 37°
2026-04-25 01:33 43.36160 -112.17010 33019 ft 503 kts 37°
2026-04-25 01:33 43.41346 -112.10650 32999 ft 502 kts 37°
2026-04-25 01:34 43.46556 -112.04245 32976 ft 501 kts 37°
2026-04-25 01:34 43.51852 -111.98078 32974 ft 494 kts 31°
2026-04-25 01:35 43.57479 -111.92696 32992 ft 491 kts 30°
2026-04-25 01:35 43.63122 -111.87360 32986 ft 492 kts 30°
2026-04-25 01:36 43.68703 -111.82019 32964 ft 490 kts 30°
2026-04-25 01:36 43.74292 -111.76619 32955 ft 488 kts 30°
2026-04-25 01:37 43.79849 -111.71230 32964 ft 487 kts 30°
2026-04-25 01:37 43.85392 -111.65844 32957 ft 486 kts 30°
2026-04-25 01:38 43.90929 -111.60453 32979 ft 486 kts 31°
2026-04-25 01:38 43.96452 -111.55065 33004 ft 485 kts 31°
2026-04-25 01:39 44.01931 -111.49707 33016 ft 485 kts 31°
2026-04-25 01:39 44.07446 -111.44301 33012 ft 485 kts 31°
2026-04-25 01:40 44.12964 -111.38880 33019 ft 485 kts 31°
2026-04-25 01:40 44.17543 -111.34372 33011 ft 485 kts 31°
2026-04-25 01:41 44.23046 -111.28941 33028 ft 485 kts 31°
2026-04-25 01:41 44.28549 -111.23497 33016 ft 485 kts 31°
2026-04-25 01:42 44.34051 -111.18043 33017 ft 485 kts 31°
2026-04-25 01:42 44.39550 -111.12579 33011 ft 485 kts 32°
2026-04-25 01:43 44.45047 -111.07103 33011 ft 485 kts 32°
2026-04-25 01:43 44.50547 -111.01612 32978 ft 485 kts 32°
2026-04-25 01:44 44.56032 -110.96123 32964 ft 484 kts 32°
2026-04-25 01:44 44.61479 -110.90658 32966 ft 484 kts 32°
2026-04-25 01:45 44.66944 -110.85162 32975 ft 483 kts 32°
2026-04-25 01:45 44.72413 -110.79652 32997 ft 483 kts 32°
2026-04-25 01:46 44.77861 -110.74147 33002 ft 482 kts 32°
2026-04-25 01:46 44.83315 -110.68623 33033 ft 482 kts 32°
2026-04-25 01:47 44.88764 -110.63092 33039 ft 482 kts 32°
2026-04-25 01:47 44.94207 -110.57555 33066 ft 483 kts 32°
2026-04-25 01:48 44.99664 -110.51988 33046 ft 483 kts 32°
2026-04-25 01:48 45.05111 -110.46417 33061 ft 483 kts 33°
2026-04-25 01:49 45.10528 -110.40868 33049 ft 484 kts 33°
2026-04-25 01:49 45.15979 -110.35267 33059 ft 484 kts 33°
2026-04-25 01:50 45.21433 -110.29650 33067 ft 484 kts 33°
2026-04-25 01:50 45.26882 -110.24025 33097 ft 484 kts 33°
2026-04-25 01:51 45.32294 -110.18422 33063 ft 485 kts 33°
2026-04-25 01:51 45.37742 -110.12771 33085 ft 485 kts 33°
2026-04-25 01:52 45.43196 -110.07098 33065 ft 485 kts 33°
2026-04-25 01:52 45.48653 -110.01409 33061 ft 486 kts 33°
2026-04-25 01:53 45.54167 -109.95838 33045 ft 485 kts 31°
2026-04-25 01:53 45.59780 -109.90526 33043 ft 484 kts 30°
2026-04-25 01:54 45.65405 -109.85207 33040 ft 485 kts 30°
2026-04-25 01:54 45.71019 -109.79831 33024 ft 485 kts 31°
2026-04-25 01:55 45.76586 -109.74456 33037 ft 486 kts 31°
2026-04-25 01:55 45.82190 -109.69026 33021 ft 487 kts 31°
2026-04-25 01:56 45.87799 -109.63578 33032 ft 487 kts 31°
2026-04-25 01:56 45.93425 -109.58104 33027 ft 488 kts 31°
2026-04-25 01:57 46.01871 -109.49861 33035 ft 489 kts 31°
2026-04-25 01:58 46.07504 -109.44345 33035 ft 490 kts 31°
2026-04-25 01:58 46.13106 -109.38846 33052 ft 490 kts 31°
2026-04-25 01:59 46.18742 -109.33299 33051 ft 491 kts 31°
2026-04-25 01:59 46.24390 -109.27728 33051 ft 491 kts 31°
2026-04-25 02:00 46.30043 -109.22137 33056 ft 492 kts 31°
2026-04-25 02:00 46.35691 -109.16536 33064 ft 492 kts 31°
2026-04-25 02:01 46.41298 -109.10962 33069 ft 492 kts 31°
2026-04-25 02:01 46.46937 -109.05342 33059 ft 492 kts 31°
2026-04-25 02:02 46.52577 -108.99706 33062 ft 492 kts 32°
2026-04-25 02:02 46.58216 -108.94056 33060 ft 492 kts 32°
2026-04-25 02:03 46.63866 -108.88382 33059 ft 492 kts 32°
2026-04-25 02:03 46.69465 -108.82744 33057 ft 493 kts 32°
2026-04-25 02:04 46.75104 -108.77051 33055 ft 493 kts 32°
2026-04-25 02:04 46.80737 -108.71350 33053 ft 493 kts 32°
2026-04-25 02:05 46.86369 -108.65634 33059 ft 493 kts 32°
2026-04-25 02:05 46.91996 -108.59909 33066 ft 493 kts 32°
2026-04-25 02:06 46.97627 -108.54164 33048 ft 493 kts 32°
2026-04-25 02:06 47.03249 -108.48414 33048 ft 492 kts 32°
2026-04-25 02:07 47.08828 -108.42694 33043 ft 492 kts 32°
2026-04-25 02:07 47.14441 -108.36922 33044 ft 492 kts 32°
2026-04-25 02:08 47.20048 -108.31141 33039 ft 492 kts 32°
2026-04-25 02:08 47.25652 -108.25349 33034 ft 492 kts 32°
2026-04-25 02:09 47.31245 -108.19554 33033 ft 491 kts 32°
2026-04-25 02:09 47.36836 -108.13743 33045 ft 491 kts 32°
2026-04-25 02:10 47.42416 -108.07929 33046 ft 491 kts 32°
2026-04-25 02:10 47.47993 -108.02104 33042 ft 490 kts 32°
2026-04-25 02:11 47.53620 -107.96573 33033 ft 488 kts 28°
2026-04-25 02:11 47.59401 -107.91333 33035 ft 487 kts 28°
2026-04-25 02:12 47.65193 -107.86107 33044 ft 487 kts 28°
2026-04-25 02:12 47.70980 -107.80829 33046 ft 488 kts 28°
2026-04-25 02:13 47.76763 -107.75512 33034 ft 488 kts 28°
2026-04-25 02:13 47.82501 -107.70215 33027 ft 488 kts 28°
2026-04-25 02:14 47.88266 -107.64882 33023 ft 488 kts 28°
2026-04-25 02:14 47.94041 -107.59525 33033 ft 488 kts 28°
2026-04-25 02:15 47.99809 -107.54164 33024 ft 489 kts 28°
2026-04-25 02:15 48.05588 -107.48777 33020 ft 490 kts 28°
2026-04-25 02:16 48.11373 -107.43369 33014 ft 490 kts 28°
2026-04-25 02:16 48.17156 -107.37949 33011 ft 490 kts 28°
2026-04-25 02:17 48.22895 -107.32556 33030 ft 491 kts 28°
2026-04-25 02:17 48.28674 -107.27110 33012 ft 490 kts 28°
2026-04-25 02:18 48.34453 -107.21649 33005 ft 490 kts 28°
2026-04-25 02:18 48.40217 -107.16188 33005 ft 490 kts 28°
2026-04-25 02:19 48.45981 -107.10712 33011 ft 489 kts 28°
2026-04-25 02:19 48.51745 -107.05222 33004 ft 489 kts 28°
2026-04-25 02:20 48.57463 -106.99760 32992 ft 489 kts 28°
2026-04-25 02:20 48.63212 -106.94254 32990 ft 489 kts 28°
2026-04-25 02:21 48.68955 -106.88739 32984 ft 489 kts 28°
2026-04-25 02:21 48.74658 -106.83246 33003 ft 489 kts 28°
2026-04-25 02:22 48.80399 -106.77703 32994 ft 488 kts 28°
2026-04-25 02:22 48.86134 -106.72149 32981 ft 488 kts 28°
2026-04-25 02:23 48.91866 -106.66584 32978 ft 488 kts 28°
2026-04-25 02:23 48.97584 -106.61016 32975 ft 488 kts 28°
2026-04-25 02:24 49.03303 -106.55432 32980 ft 488 kts 28°
2026-04-25 02:24 49.08980 -106.49873 32977 ft 488 kts 28°
2026-04-25 02:25 49.14700 -106.44258 32964 ft 488 kts 28°
2026-04-25 02:25 49.20414 -106.38632 32964 ft 488 kts 29°
2026-04-25 02:26 49.26120 -106.32998 32967 ft 488 kts 29°
2026-04-25 02:26 49.31830 -106.27345 32956 ft 489 kts 29°
2026-04-25 02:27 49.37533 -106.21683 32959 ft 489 kts 29°
2026-04-25 02:27 49.43247 -106.15994 32945 ft 489 kts 29°
2026-04-25 02:28 49.48918 -106.10331 32928 ft 489 kts 29°
2026-04-25 02:28 49.54629 -106.04614 32948 ft 489 kts 29°
2026-04-25 02:29 49.60335 -105.98884 32914 ft 489 kts 30°
2026-04-25 02:29 49.66026 -105.93152 32930 ft 488 kts 30°
2026-04-25 02:30 49.70756 -105.88377 32913 ft 489 kts 30°
2026-04-25 02:30 49.76453 -105.82612 32910 ft 489 kts 30°
2026-04-25 02:31 49.82157 -105.76822 32927 ft 491 kts 30°
2026-04-25 02:31 49.87870 -105.71007 32908 ft 492 kts 30°
2026-04-25 02:32 49.93584 -105.65172 32898 ft 492 kts 30°
2026-04-25 02:32 49.99308 -105.59311 32906 ft 494 kts 30°
2026-04-25 02:33 50.05017 -105.53451 32897 ft 495 kts 30°
2026-04-25 02:33 50.10770 -105.47526 32900 ft 497 kts 31°
2026-04-25 02:34 50.16536 -105.41570 32889 ft 497 kts 31°
2026-04-25 02:34 50.22304 -105.35595 32886 ft 498 kts 31°
2026-04-25 02:35 50.28069 -105.29605 32888 ft 498 kts 31°
2026-04-25 02:35 50.33856 -105.23574 32879 ft 499 kts 31°
2026-04-25 02:36 50.39637 -105.17532 32865 ft 500 kts 31°
2026-04-25 02:36 50.45417 -105.11474 32852 ft 499 kts 31°
2026-04-25 02:37 50.51191 -105.05401 32852 ft 499 kts 31°
2026-04-25 02:37 50.56920 -104.99360 32817 ft 499 kts 32°
2026-04-25 02:38 50.62704 -104.93241 32853 ft 499 kts 32°
2026-04-25 02:38 50.68467 -104.87133 32827 ft 499 kts 32°
2026-04-25 02:39 50.74231 -104.81070 32830 ft 498 kts 32°
2026-04-25 02:39 50.79991 -104.75013 32818 ft 497 kts 32°
2026-04-25 02:40 50.85737 -104.68945 32822 ft 496 kts 32°
2026-04-25 02:40 50.91485 -104.62850 32816 ft 497 kts 32°
2026-04-25 02:41 50.97201 -104.56768 32810 ft 499 kts 33°
2026-04-25 02:41 51.02967 -104.50614 32808 ft 500 kts 33°
2026-04-25 02:42 51.08739 -104.44434 32800 ft 500 kts 33°
2026-04-25 02:42 51.14518 -104.38229 32803 ft 501 kts 33°
2026-04-25 02:43 51.20296 -104.32007 32782 ft 501 kts 33°
2026-04-25 02:43 51.26077 -104.25762 32788 ft 502 kts 33°
2026-04-25 02:44 51.31863 -104.19491 32803 ft 501 kts 33°
2026-04-25 02:44 51.37597 -104.13258 32780 ft 501 kts 33°
2026-04-25 02:45 51.43359 -104.06975 32780 ft 501 kts 34°
2026-04-25 02:45 51.49104 -104.00691 32773 ft 499 kts 34°
2026-04-25 02:46 51.54842 -103.94396 32767 ft 498 kts 34°
2026-04-25 02:46 51.60544 -103.88120 32775 ft 496 kts 34°
2026-04-25 02:47 51.66233 -103.81839 32774 ft 495 kts 34°
2026-04-25 02:47 51.71906 -103.75556 32771 ft 495 kts 34°
2026-04-25 02:48 51.77575 -103.69260 32755 ft 494 kts 35°
2026-04-25 02:48 51.83232 -103.62956 32773 ft 493 kts 36°
2026-04-25 02:49 51.88881 -103.56641 32770 ft 493 kts 36°
2026-04-25 02:49 51.94499 -103.50341 32754 ft 494 kts 36°
2026-04-25 02:50 52.00151 -103.43984 32762 ft 494 kts 36°
2026-04-25 02:50 52.05797 -103.37613 32752 ft 494 kts 36°
2026-04-25 02:51 52.11398 -103.31274 32758 ft 493 kts 36°
2026-04-25 02:51 52.17027 -103.24884 32756 ft 493 kts 36°
2026-04-25 02:52 52.22650 -103.18478 32761 ft 493 kts 36°
2026-04-25 02:52 52.28265 -103.12063 32746 ft 493 kts 36°
2026-04-25 02:53 52.33879 -103.05629 32749 ft 492 kts 36°
2026-04-25 02:53 52.39467 -102.99203 32733 ft 491 kts 37°
2026-04-25 02:54 52.45052 -102.92762 32742 ft 490 kts 37°
2026-04-25 02:54 52.50622 -102.86316 32745 ft 490 kts 37°
2026-04-25 02:55 52.56166 -102.79881 32733 ft 490 kts 37°
2026-04-25 02:55 52.61726 -102.73408 32746 ft 489 kts 37°
2026-04-25 02:56 52.67275 -102.66926 32751 ft 488 kts 37°
2026-04-25 02:56 52.72808 -102.60442 32738 ft 487 kts 38°
2026-04-25 02:57 52.78299 -102.53986 32764 ft 488 kts 38°
2026-04-25 02:57 52.83826 -102.47469 32762 ft 489 kts 38°
2026-04-25 02:58 52.89372 -102.40907 32773 ft 489 kts 38°
2026-04-25 02:58 52.94909 -102.34334 32774 ft 490 kts 38°
2026-04-25 02:59 53.00457 -102.27729 32774 ft 491 kts 38°
2026-04-25 02:59 53.06001 -102.21107 32780 ft 491 kts 38°
2026-04-25 03:00 53.11512 -102.14502 32790 ft 492 kts 38°
2026-04-25 03:00 53.17069 -102.07822 32795 ft 492 kts 39°
2026-04-25 03:01 53.22620 -102.01126 32797 ft 492 kts 39°
2026-04-25 03:01 53.28165 -101.94416 32796 ft 491 kts 39°
2026-04-25 03:02 53.33695 -101.87701 32773 ft 491 kts 39°
2026-04-25 03:02 53.39184 -101.81016 32794 ft 491 kts 39°
2026-04-25 03:03 53.44715 -101.74255 32810 ft 492 kts 40°
2026-04-25 03:03 53.50246 -101.67473 32795 ft 493 kts 40°
2026-04-25 03:04 53.55784 -101.60659 32821 ft 493 kts 40°
2026-04-25 03:04 53.61316 -101.53832 32820 ft 493 kts 40°
2026-04-25 03:05 53.69604 -101.43559 32821 ft 493 kts 40°
2026-04-25 03:05 53.75132 -101.36679 32814 ft 494 kts 41°
2026-04-25 03:06 53.80662 -101.29771 32831 ft 494 kts 41°
2026-04-25 03:06 53.86193 -101.22840 32810 ft 495 kts 41°
2026-04-25 03:07 53.91727 -101.15882 32806 ft 495 kts 41°
2026-04-25 03:07 53.97310 -101.09134 32769 ft 498 kts 37°
2026-04-25 03:08 54.03543 -101.03767 32805 ft 504 kts 30°
2026-04-25 03:08 54.09942 -100.98803 32821 ft 506 kts 30°
2026-04-25 03:09 54.16346 -100.93789 32884 ft 507 kts 30°
2026-04-25 03:09 54.22761 -100.88681 32879 ft 508 kts 31°
2026-04-25 03:10 54.29127 -100.83566 32880 ft 508 kts 31°
2026-04-25 03:10 54.35511 -100.78417 32887 ft 507 kts 31°
2026-04-25 03:11 54.41894 -100.73253 32884 ft 506 kts 31°
2026-04-25 03:11 54.48257 -100.68090 32900 ft 505 kts 32°
2026-04-25 03:12 54.54623 -100.62903 32870 ft 507 kts 32°
2026-04-25 03:12 54.60996 -100.57696 32901 ft 507 kts 32°
2026-04-25 03:13 54.67338 -100.52495 32906 ft 508 kts 32°
2026-04-25 03:13 54.73736 -100.47230 32909 ft 509 kts 32°
2026-04-25 03:14 54.80131 -100.41950 32910 ft 509 kts 32°
2026-04-25 03:14 54.86528 -100.36652 32912 ft 508 kts 32°
2026-04-25 03:15 54.92890 -100.31364 32920 ft 506 kts 32°
2026-04-25 03:15 54.99237 -100.26067 32915 ft 505 kts 32°
2026-04-25 03:16 55.05562 -100.20769 32918 ft 504 kts 32°
2026-04-25 03:16 55.11846 -100.15488 32912 ft 503 kts 33°
2026-04-25 03:17 55.18149 -100.10173 32921 ft 502 kts 33°
2026-04-25 03:17 55.24437 -100.04851 32937 ft 502 kts 33°
2026-04-25 03:18 55.30720 -99.99513 32939 ft 502 kts 33°
2026-04-25 03:18 55.37005 -99.94156 32936 ft 501 kts 33°
2026-04-25 03:19 55.43277 -99.88792 32941 ft 501 kts 34°
2026-04-25 03:19 55.48495 -99.84313 32948 ft 501 kts 34°
2026-04-25 03:20 55.54775 -99.78906 32953 ft 502 kts 34°
2026-04-25 03:20 55.62075 -99.72595 32959 ft 503 kts 34°
2026-04-25 03:21 55.67350 -99.68020 32964 ft 503 kts 34°
2026-04-25 03:21 55.73593 -99.62587 32972 ft 503 kts 34°
2026-04-25 03:22 55.79874 -99.57103 32938 ft 502 kts 35°
2026-04-25 03:22 55.86151 -99.51602 32968 ft 503 kts 35°
2026-04-25 03:23 55.92426 -99.46080 32980 ft 503 kts 35°
2026-04-25 03:23 55.98707 -99.40536 32971 ft 503 kts 36°
2026-04-25 03:24 56.04942 -99.35010 32979 ft 503 kts 36°
2026-04-25 03:24 56.11224 -99.29421 32992 ft 504 kts 36°
2026-04-25 03:25 56.17507 -99.23813 32991 ft 504 kts 36°
2026-04-25 03:25 56.23783 -99.18190 32947 ft 504 kts 36°
2026-04-25 03:26 56.30069 -99.12537 32998 ft 506 kts 37°
2026-04-25 03:26 56.36394 -99.06821 33009 ft 511 kts 37°
2026-04-25 03:27 56.42775 -99.01034 33016 ft 515 kts 37°
2026-04-25 03:27 56.49152 -98.95238 33016 ft 516 kts 37°
2026-04-25 03:28 56.55568 -98.89390 33004 ft 515 kts 37°
2026-04-25 03:28 56.61956 -98.83543 33014 ft 513 kts 37°
2026-04-25 03:29 56.68335 -98.77676 33042 ft 512 kts 37°
2026-04-25 03:29 56.74648 -98.71846 33023 ft 511 kts 38°
2026-04-25 03:30 56.80992 -98.65963 33051 ft 511 kts 38°
2026-04-25 03:30 56.87330 -98.60064 33051 ft 510 kts 39°
2026-04-25 03:31 56.93660 -98.54149 33058 ft 511 kts 39°
2026-04-25 03:31 56.99990 -98.48212 33068 ft 511 kts 39°
2026-04-25 03:32 57.06287 -98.42286 33068 ft 512 kts 39°
2026-04-25 03:32 57.12622 -98.36301 33053 ft 511 kts 39°
2026-04-25 03:33 57.18943 -98.30306 33041 ft 511 kts 38°
2026-04-25 03:33 57.25272 -98.24277 33087 ft 513 kts 38°
2026-04-25 03:34 57.31624 -98.18201 33095 ft 514 kts 38°
2026-04-25 03:34 57.37998 -98.12084 33115 ft 516 kts 38°
2026-04-25 03:35 57.44329 -98.05987 33115 ft 516 kts 38°
2026-04-25 03:35 57.50720 -97.99806 33122 ft 517 kts 38°
2026-04-25 03:36 57.57103 -97.93609 33146 ft 517 kts 38°
2026-04-25 03:36 57.63488 -97.87385 33145 ft 517 kts 38°
2026-04-25 03:37 57.69806 -97.81204 33125 ft 515 kts 37°
2026-04-25 03:37 57.76156 -97.74963 33156 ft 515 kts 37°
2026-04-25 03:38 57.82492 -97.68709 33177 ft 515 kts 37°
2026-04-25 03:38 57.88834 -97.62424 33174 ft 516 kts 37°
2026-04-25 03:39 57.95195 -97.56096 33194 ft 516 kts 38°
2026-04-25 03:39 58.01538 -97.49762 33189 ft 516 kts 37°
2026-04-25 03:40 58.07843 -97.43441 33203 ft 516 kts 37°
2026-04-25 03:40 58.14188 -97.37053 33172 ft 516 kts 37°
2026-04-25 03:41 58.20521 -97.30652 33214 ft 516 kts 37°
2026-04-25 03:41 58.26859 -97.24218 33226 ft 516 kts 37°
2026-04-25 03:42 58.33189 -97.17766 33243 ft 516 kts 36°
2026-04-25 03:42 58.39526 -97.11281 33266 ft 517 kts 36°
2026-04-25 03:43 58.45824 -97.04808 33258 ft 517 kts 36°
2026-04-25 03:43 58.52161 -96.98271 33276 ft 517 kts 36°
2026-04-25 03:44 58.58497 -96.91708 33281 ft 517 kts 36°
2026-04-25 03:44 58.64819 -96.85131 33288 ft 516 kts 36°
2026-04-25 03:45 58.71129 -96.78539 33296 ft 515 kts 36°
2026-04-25 03:45 58.77428 -96.71930 33298 ft 515 kts 36°
2026-04-25 03:46 58.83722 -96.65300 33297 ft 515 kts 36°
2026-04-25 03:46 58.89974 -96.58685 33308 ft 514 kts 36°
2026-04-25 03:47 58.96260 -96.52007 33314 ft 515 kts 36°
2026-04-25 03:47 59.02555 -96.45292 33326 ft 516 kts 36°
2026-04-25 03:48 59.08843 -96.38556 33324 ft 516 kts 36°
2026-04-25 03:48 59.15128 -96.31796 33349 ft 516 kts 36°
2026-04-25 03:49 59.21405 -96.25014 33337 ft 516 kts 35°
2026-04-25 03:49 59.27696 -96.18189 33358 ft 516 kts 35°
2026-04-25 03:50 59.33939 -96.11387 33363 ft 516 kts 35°
2026-04-25 03:50 59.40216 -96.04519 33377 ft 517 kts 35°
2026-04-25 03:51 59.46491 -95.97623 33383 ft 517 kts 36°
2026-04-25 03:51 59.52727 -95.90740 33391 ft 516 kts 35°
2026-04-25 03:52 59.58999 -95.83789 33411 ft 516 kts 35°
2026-04-25 03:52 59.65263 -95.76817 33408 ft 517 kts 35°
2026-04-25 03:53 59.71524 -95.69817 33430 ft 517 kts 35°
2026-04-25 03:53 59.77778 -95.62795 33412 ft 517 kts 34°
2026-04-25 03:54 59.84030 -95.55744 33441 ft 517 kts 34°
2026-04-25 03:54 59.90280 -95.48665 33445 ft 517 kts 34°
2026-04-25 03:55 59.96540 -95.41543 33464 ft 517 kts 35°
2026-04-25 03:55 60.02754 -95.34443 33464 ft 517 kts 35°
2026-04-25 03:56 60.09001 -95.27273 33472 ft 516 kts 34°
2026-04-25 03:56 60.15226 -95.20099 33474 ft 516 kts 34°
2026-04-25 03:57 60.21449 -95.12894 33495 ft 515 kts 34°
2026-04-25 03:57 60.27664 -95.05666 33493 ft 515 kts 34°
2026-04-25 03:58 60.33828 -94.98465 33506 ft 515 kts 34°
2026-04-25 03:58 60.40024 -94.91195 33498 ft 515 kts 34°
2026-04-25 03:59 60.46217 -94.83896 33514 ft 515 kts 34°
2026-04-25 03:59 60.52412 -94.76563 33519 ft 516 kts 34°
2026-04-25 04:00 60.58622 -94.69179 33521 ft 516 kts 33°
2026-04-25 04:00 60.64783 -94.61820 33530 ft 517 kts 33°
2026-04-25 04:01 60.70991 -94.54370 33530 ft 518 kts 33°
2026-04-25 04:01 60.77196 -94.46892 33535 ft 518 kts 33°
2026-04-25 04:02 60.83416 -94.39361 33552 ft 519 kts 33°
2026-04-25 04:02 60.89633 -94.31799 33563 ft 520 kts 33°
2026-04-25 04:03 60.95858 -94.24191 33565 ft 520 kts 33°
2026-04-25 04:03 61.02072 -94.16563 33568 ft 520 kts 33°
2026-04-25 04:04 61.08268 -94.08823 33573 ft 520 kts 36°
2026-04-25 04:04 61.13874 -93.99500 33622 ft 518 kts 46°
2026-04-25 04:05 61.16450 -93.94394 33898 ft 519 kts 47°
2026-04-25 04:05 61.19038 -93.89202 34298 ft 517 kts 47°
2026-04-25 04:05 61.21621 -93.84018 34678 ft 515 kts 47°
2026-04-25 04:05 61.24197 -93.78863 35009 ft 513 kts 47°
2026-04-25 04:06 61.26774 -93.73725 35313 ft 513 kts 46°
2026-04-25 04:06 61.29353 -93.68593 35531 ft 513 kts 46°
2026-04-25 04:06 61.34551 -93.58245 35613 ft 520 kts 46°
2026-04-25 04:07 61.39763 -93.47833 35574 ft 516 kts 46°
2026-04-25 04:07 61.44925 -93.37469 35611 ft 513 kts 46°
2026-04-25 04:08 61.50019 -93.27183 35612 ft 511 kts 46°
2026-04-25 04:08 61.55129 -93.16811 35636 ft 511 kts 46°
2026-04-25 04:09 61.60235 -93.06397 35644 ft 512 kts 46°
2026-04-25 04:09 61.65357 -92.95902 35644 ft 514 kts 46°
2026-04-25 04:10 61.70459 -92.85397 35653 ft 516 kts 46°
2026-04-25 04:10 61.75592 -92.74776 35647 ft 517 kts 46°
2026-04-25 04:11 61.82445 -92.60515 35652 ft 517 kts 46°
2026-04-25 04:12 61.87557 -92.49816 35652 ft 516 kts 46°
2026-04-25 04:12 61.92625 -92.39154 35673 ft 516 kts 46°
2026-04-25 04:13 61.97723 -92.28375 35667 ft 517 kts 46°
2026-04-25 04:13 62.02823 -92.17542 35666 ft 518 kts 46°
2026-04-25 04:14 62.07916 -92.06665 35672 ft 518 kts 46°
2026-04-25 04:14 62.12976 -91.95806 35678 ft 518 kts 46°
2026-04-25 04:15 62.18060 -91.84841 35686 ft 518 kts 46°
2026-04-25 04:15 62.23130 -91.73850 35700 ft 518 kts 46°
2026-04-25 04:16 62.28167 -91.62874 35701 ft 520 kts 46°
2026-04-25 04:16 62.33244 -91.51755 35699 ft 522 kts 46°
2026-04-25 04:17 62.38324 -91.40571 35693 ft 523 kts 45°
2026-04-25 04:17 62.43418 -91.29300 35706 ft 523 kts 46°
2026-04-25 04:18 62.48493 -91.18013 35705 ft 523 kts 46°
2026-04-25 04:18 62.53526 -91.06758 35726 ft 523 kts 45°
2026-04-25 04:19 62.58584 -90.95390 35715 ft 524 kts 45°
2026-04-25 04:19 62.63639 -90.83970 35716 ft 524 kts 45°
2026-04-25 04:20 62.68686 -90.72508 35712 ft 524 kts 45°
2026-04-25 04:20 62.73725 -90.61002 35722 ft 524 kts 45°
2026-04-25 04:21 62.78731 -90.49513 35735 ft 524 kts 45°
2026-04-25 04:21 62.83743 -90.37945 35747 ft 524 kts 45°
2026-04-25 04:22 62.88746 -90.26339 35745 ft 524 kts 45°
2026-04-25 04:22 62.93738 -90.14696 35741 ft 524 kts 45°
2026-04-25 04:23 62.98724 -90.03012 35737 ft 523 kts 45°
2026-04-25 04:23 63.03473 -89.90981 35740 ft 524 kts 49°
2026-04-25 04:24 63.08056 -89.78456 35750 ft 525 kts 50°
2026-04-25 04:24 63.12635 -89.65811 35752 ft 526 kts 50°
2026-04-25 04:25 63.17233 -89.53152 35768 ft 528 kts 49°
2026-04-25 04:25 63.21847 -89.40445 35766 ft 530 kts 49°
2026-04-25 04:26 63.26436 -89.27752 35766 ft 531 kts 49°
2026-04-25 04:26 63.31043 -89.14925 35763 ft 531 kts 49°
2026-04-25 04:27 63.35639 -89.02050 35759 ft 531 kts 50°
2026-04-25 04:27 63.40223 -88.89133 35777 ft 531 kts 50°
2026-04-25 04:28 63.44805 -88.76148 35780 ft 531 kts 50°
2026-04-25 04:28 63.49353 -88.63187 35787 ft 533 kts 50°
2026-04-25 04:29 63.53925 -88.50083 35786 ft 534 kts 50°
2026-04-25 04:29 63.58498 -88.36897 35784 ft 535 kts 50°
2026-04-25 04:30 63.63065 -88.23652 35789 ft 535 kts 50°
2026-04-25 04:30 63.67612 -88.10385 35790 ft 535 kts 50°
2026-04-25 04:31 63.72117 -87.97164 35789 ft 534 kts 50°
2026-04-25 04:31 63.76641 -87.83810 35799 ft 536 kts 50°
2026-04-25 04:32 63.81163 -87.70383 35803 ft 537 kts 50°
2026-04-25 04:32 63.85678 -87.56894 35808 ft 538 kts 50°
2026-04-25 04:33 63.90186 -87.43347 35800 ft 538 kts 50°
2026-04-25 04:33 63.94662 -87.29811 35801 ft 538 kts 50°
2026-04-25 04:34 63.99147 -87.16169 35809 ft 538 kts 50°
2026-04-25 04:34 64.03617 -87.02487 35829 ft 538 kts 50°
2026-04-25 04:35 64.08090 -86.88719 35820 ft 540 kts 50°
2026-04-25 04:35 64.12564 -86.74858 35816 ft 541 kts 50°
2026-04-25 04:36 64.17027 -86.60946 35814 ft 542 kts 50°
2026-04-25 04:36 64.21461 -86.47039 35814 ft 542 kts 50°
2026-04-25 04:37 64.25896 -86.33040 35814 ft 542 kts 50°
2026-04-25 04:37 64.30317 -86.18999 35816 ft 541 kts 50°
2026-04-25 04:38 64.34733 -86.04886 35822 ft 542 kts 50°
2026-04-25 04:38 64.39130 -85.90746 35816 ft 542 kts 49°
2026-04-25 04:39 64.43513 -85.76562 35821 ft 542 kts 50°
2026-04-25 04:39 64.47859 -85.62407 35816 ft 542 kts 50°
2026-04-25 04:40 64.52218 -85.48122 35817 ft 542 kts 50°
2026-04-25 04:40 64.56557 -85.33807 35821 ft 542 kts 50°
2026-04-25 04:41 64.60882 -85.19451 35819 ft 541 kts 50°
2026-04-25 04:41 64.65189 -85.05061 35824 ft 541 kts 50°
2026-04-25 04:42 64.69486 -84.90611 35817 ft 541 kts 50°
2026-04-25 04:42 64.73761 -84.76145 35830 ft 540 kts 50°
2026-04-25 04:43 64.77998 -84.61713 35828 ft 540 kts 50°
2026-04-25 04:43 64.82247 -84.47147 35822 ft 540 kts 50°
2026-04-25 04:44 64.86473 -84.32563 35841 ft 540 kts 51°
2026-04-25 04:44 64.90689 -84.17920 35851 ft 540 kts 50°
2026-04-25 04:45 64.94885 -84.03249 35850 ft 540 kts 50°
2026-04-25 04:45 64.99048 -83.88598 35858 ft 540 kts 50°
2026-04-25 04:46 65.03215 -83.73837 35865 ft 540 kts 50°
2026-04-25 04:46 65.07368 -83.59026 35861 ft 540 kts 51°
2026-04-25 04:47 65.11512 -83.44154 35871 ft 540 kts 51°
2026-04-25 04:47 65.15636 -83.29247 35915 ft 539 kts 50°
2026-04-25 04:48 65.19748 -83.14286 35880 ft 540 kts 51°
2026-04-25 04:48 65.23847 -82.99275 35879 ft 540 kts 51°
2026-04-25 04:49 65.27938 -82.84186 35879 ft 541 kts 51°
2026-04-25 04:49 65.31988 -82.69149 35882 ft 541 kts 51°
2026-04-25 04:50 65.36046 -82.53981 35879 ft 541 kts 51°
2026-04-25 04:50 65.40094 -82.38743 35885 ft 541 kts 51°
2026-04-25 04:51 65.44125 -82.23463 35895 ft 542 kts 51°
2026-04-25 04:51 65.48159 -82.08071 35887 ft 542 kts 51°
2026-04-25 04:52 65.52165 -81.92679 35877 ft 543 kts 51°
2026-04-25 04:52 65.56165 -81.77199 35880 ft 543 kts 51°
2026-04-25 04:53 65.60116 -81.61800 35882 ft 543 kts 51°
2026-04-25 04:53 65.64080 -81.46241 35879 ft 543 kts 51°
2026-04-25 04:54 65.68022 -81.30660 35878 ft 542 kts 51°
2026-04-25 04:54 65.71952 -81.15020 35889 ft 543 kts 51°
2026-04-25 04:55 65.75883 -80.99260 35890 ft 544 kts 51°
2026-04-25 04:55 65.79796 -80.83458 35885 ft 545 kts 51°
2026-04-25 04:56 65.83697 -80.67592 35882 ft 545 kts 52°
2026-04-25 04:56 65.87557 -80.51776 35882 ft 546 kts 52°
2026-04-25 04:57 65.91432 -80.35785 35880 ft 546 kts 52°
2026-04-25 04:57 65.95298 -80.19718 35934 ft 547 kts 52°
2026-04-25 04:58 65.99117 -80.03482 35877 ft 553 kts 56°
2026-04-25 04:58 66.02093 -79.85878 35883 ft 562 kts 66°
2026-04-25 04:59 66.04498 -79.67526 35886 ft 564 kts 67°
2026-04-25 04:59 66.06469 -79.52233 35894 ft 563 kts 66°
2026-04-25 05:00 66.08870 -79.33859 35872 ft 562 kts 66°
2026-04-25 05:00 66.11280 -79.15506 35882 ft 561 kts 66°
2026-04-25 05:01 66.13668 -78.97172 35882 ft 561 kts 66°
2026-04-25 05:01 66.16029 -78.78808 35871 ft 560 kts 67°
2026-04-25 05:02 66.18351 -78.60518 35883 ft 562 kts 66°
2026-04-25 05:02 66.20671 -78.42026 35886 ft 562 kts 67°
2026-04-25 05:03 66.22970 -78.23498 35880 ft 563 kts 67°
2026-04-25 05:03 66.25248 -78.04928 35873 ft 563 kts 67°
2026-04-25 05:04 66.27507 -77.86294 35875 ft 563 kts 67°
2026-04-25 05:04 66.29732 -77.67732 35865 ft 564 kts 67°
2026-04-25 05:05 66.31947 -77.49019 35872 ft 563 kts 68°
2026-04-25 05:05 66.34135 -77.30323 35868 ft 562 kts 68°
2026-04-25 05:06 66.36299 -77.11604 35957 ft 561 kts 68°
2026-04-25 05:06 66.38427 -76.92985 35872 ft 564 kts 68°
2026-04-25 05:07 66.40556 -76.74129 35859 ft 564 kts 68°
2026-04-25 05:07 66.42659 -76.55249 35873 ft 564 kts 68°
2026-04-25 05:08 66.44740 -76.36329 35865 ft 564 kts 68°
2026-04-25 05:08 66.46802 -76.17351 35860 ft 564 kts 69°
2026-04-25 05:09 66.48837 -75.98382 35858 ft 564 kts 69°
2026-04-25 05:09 66.50836 -75.79506 35859 ft 564 kts 69°
2026-04-25 05:10 66.52823 -75.60480 35856 ft 562 kts 69°
2026-04-25 05:10 66.54782 -75.41481 35937 ft 562 kts 69°
2026-04-25 05:11 66.56725 -75.22403 35857 ft 564 kts 69°
2026-04-25 05:11 66.58649 -75.03240 35861 ft 565 kts 69°
2026-04-25 05:12 66.61482 -74.74527 35844 ft 567 kts 70°
2026-04-25 05:12 66.63350 -74.55252 35844 ft 567 kts 70°
2026-04-25 05:13 66.65198 -74.35919 35845 ft 566 kts 70°
2026-04-25 05:13 66.67021 -74.16564 35841 ft 566 kts 70°
2026-04-25 05:14 66.68817 -73.97222 35839 ft 566 kts 70°
2026-04-25 05:15 66.71464 -73.68181 35905 ft 566 kts 71°
2026-04-25 05:15 66.73195 -73.48845 35850 ft 567 kts 71°
2026-04-25 05:16 66.74910 -73.29374 35849 ft 568 kts 71°
2026-04-25 05:16 66.76604 -73.09838 35836 ft 568 kts 71°
2026-04-25 05:17 66.78276 -72.90255 35833 ft 568 kts 71°
2026-04-25 05:17 66.79922 -72.70678 35825 ft 568 kts 72°
2026-04-25 05:18 66.81543 -72.51072 35833 ft 567 kts 72°
2026-04-25 05:18 66.83139 -72.31444 35828 ft 567 kts 72°
2026-04-25 05:19 66.84700 -72.11934 35826 ft 567 kts 72°
2026-04-25 05:19 66.86247 -71.92271 35821 ft 567 kts 72°
2026-04-25 05:20 66.87768 -71.72605 35811 ft 567 kts 73°
2026-04-25 05:20 66.89266 -71.52894 35819 ft 566 kts 73°
2026-04-25 05:21 66.90737 -71.33182 35826 ft 565 kts 73°
2026-04-25 05:21 66.92181 -71.13503 35825 ft 565 kts 73°
2026-04-25 05:22 66.93601 -70.93786 35822 ft 565 kts 73°
2026-04-25 05:22 66.94986 -70.74190 35824 ft 565 kts 74°
2026-04-25 05:23 66.96358 -70.54416 35814 ft 566 kts 74°
2026-04-25 05:23 66.97709 -70.34581 35832 ft 566 kts 74°
2026-04-25 05:24 66.99039 -70.14696 35820 ft 568 kts 75°
2026-04-25 05:24 67.00627 -69.95012 35804 ft 561 kts 67°
2026-04-25 05:25 67.03154 -69.76430 35808 ft 555 kts 63°
2026-04-25 05:25 67.05804 -69.57843 35798 ft 555 kts 63°
2026-04-25 05:26 67.08399 -69.39172 35795 ft 556 kts 64°
2026-04-25 05:26 67.10942 -69.20388 35795 ft 557 kts 64°
2026-04-25 05:27 67.13454 -69.01537 35790 ft 558 kts 64°
2026-04-25 05:27 67.15955 -68.82588 35830 ft 559 kts 65°
2026-04-25 05:28 67.18439 -68.63587 35789 ft 559 kts 66°
2026-04-25 05:28 67.20895 -68.44574 35774 ft 558 kts 66°
2026-04-25 05:29 67.23308 -68.25692 35775 ft 557 kts 66°
2026-04-25 05:29 67.25712 -68.06677 35772 ft 556 kts 66°
2026-04-25 05:30 67.28091 -67.87645 35762 ft 556 kts 66°
2026-04-25 05:30 67.30446 -67.68578 35768 ft 556 kts 66°
2026-04-25 05:31 67.32787 -67.49418 35820 ft 557 kts 68°
2026-04-25 05:31 67.35089 -67.30344 35748 ft 557 kts 68°
2026-04-25 05:32 67.37385 -67.11083 35736 ft 557 kts 68°
2026-04-25 05:32 67.39653 -66.91836 35717 ft 557 kts 68°
2026-04-25 05:33 67.41902 -66.72513 35717 ft 557 kts 69°
2026-04-25 05:33 67.44111 -66.53307 35693 ft 557 kts 69°
2026-04-25 05:34 67.46311 -66.33945 35694 ft 557 kts 69°
2026-04-25 05:34 67.48477 -66.14654 35694 ft 556 kts 70°
2026-04-25 05:35 67.50625 -65.95265 35670 ft 556 kts 70°
2026-04-25 05:35 67.52750 -65.75835 35662 ft 555 kts 71°
2026-04-25 05:36 67.54850 -65.56390 35632 ft 555 kts 71°
2026-04-25 05:36 67.56921 -65.36967 35650 ft 554 kts 71°
2026-04-25 05:37 67.58970 -65.17508 35641 ft 555 kts 71°
2026-04-25 05:37 67.60987 -64.98100 35752 ft 554 kts 71°
2026-04-25 05:38 67.62998 -64.78493 35672 ft 556 kts 72°
2026-04-25 05:38 67.64982 -64.58866 35690 ft 555 kts 72°
2026-04-25 05:39 67.66931 -64.39316 35682 ft 555 kts 72°
2026-04-25 05:39 67.68865 -64.19665 35678 ft 554 kts 73°
2026-04-25 05:40 67.70772 -64.00012 35689 ft 554 kts 73°
2026-04-25 05:40 67.72653 -63.80350 35673 ft 552 kts 73°
2026-04-25 05:41 67.74507 -63.60694 35746 ft 553 kts 73°
2026-04-25 05:41 67.76342 -63.40961 35674 ft 554 kts 74°
2026-04-25 05:42 67.78153 -63.21182 35673 ft 553 kts 74°
2026-04-25 05:42 67.79940 -63.01386 35669 ft 553 kts 74°
2026-04-25 05:43 67.81692 -62.81683 35673 ft 552 kts 75°
2026-04-25 05:43 67.83427 -62.61872 35666 ft 551 kts 75°
2026-04-25 05:44 67.85136 -62.42054 35669 ft 552 kts 75°
2026-04-25 05:44 67.86822 -62.22211 35737 ft 552 kts 75°
2026-04-25 05:45 67.88489 -62.02271 35681 ft 553 kts 76°
2026-04-25 05:45 67.90130 -61.82307 35675 ft 553 kts 76°
2026-04-25 05:46 67.91747 -61.62328 35670 ft 552 kts 76°
2026-04-25 05:46 67.93326 -61.42483 35650 ft 551 kts 76°
2026-04-25 05:47 67.94889 -61.22522 35665 ft 551 kts 77°
2026-04-25 05:47 67.96430 -61.02509 35676 ft 551 kts 77°
2026-04-25 05:48 67.97937 -60.82626 35712 ft 551 kts 78°
2026-04-25 05:48 67.98842 -60.62279 35677 ft 553 kts 86°
2026-04-25 05:49 67.99138 -60.45262 35666 ft 553 kts 87°
2026-04-25 05:49 67.99507 -60.24802 35633 ft 552 kts 87°
2026-04-25 05:50 67.99920 -60.04328 35658 ft 551 kts 87°
2026-04-25 05:50 68.00394 -59.83884 35660 ft 551 kts 85°
2026-04-25 05:51 68.01008 -59.63615 35658 ft 551 kts 85°
2026-04-25 05:51 68.01616 -59.43187 35660 ft 551 kts 85°
2026-04-25 05:52 68.02168 -59.22765 35657 ft 552 kts 86°
2026-04-25 05:52 68.02679 -59.02302 35654 ft 552 kts 86°
2026-04-25 05:53 68.03161 -58.81846 35646 ft 552 kts 86°
2026-04-25 05:53 68.03620 -58.61383 35645 ft 551 kts 86°
2026-04-25 05:54 68.04056 -58.40934 35644 ft 551 kts 87°
2026-04-25 05:54 68.04659 -58.10399 35643 ft 550 kts 87°
2026-04-25 05:55 68.05030 -57.89986 35630 ft 549 kts 88°
2026-04-25 05:55 68.05376 -57.69579 35628 ft 549 kts 88°
2026-04-25 05:56 68.05696 -57.49169 35632 ft 549 kts 88°
2026-04-25 05:56 68.05991 -57.28745 35630 ft 550 kts 88°
2026-04-25 05:57 68.06260 -57.08383 35619 ft 550 kts 88°
2026-04-25 05:57 68.06506 -56.87936 35565 ft 550 kts 89°
2026-04-25 05:58 68.06726 -56.67480 35608 ft 549 kts 89°
2026-04-25 05:58 68.06920 -56.47038 35604 ft 549 kts 89°
2026-04-25 05:59 68.07089 -56.26596 35608 ft 550 kts 90°
2026-04-25 05:59 68.07233 -56.06142 35601 ft 550 kts 90°
2026-04-25 06:00 68.07351 -55.85809 35635 ft 550 kts 90°
2026-04-25 06:00 68.07445 -55.65347 35554 ft 550 kts 91°
2026-04-25 06:01 68.07513 -55.44895 35585 ft 548 kts 91°
2026-04-25 06:01 68.07556 -55.24484 35581 ft 548 kts 91°
2026-04-25 06:02 68.07573 -55.04127 35575 ft 547 kts 91°
2026-04-25 06:02 68.07566 -54.83778 35573 ft 547 kts 92°
2026-04-25 06:03 68.07533 -54.63422 35569 ft 547 kts 92°
2026-04-25 06:03 68.07476 -54.43074 35544 ft 545 kts 92°
2026-04-25 06:04 68.07394 -54.22901 35608 ft 546 kts 93°
2026-04-25 06:04 68.07286 -54.02548 35563 ft 548 kts 93°
2026-04-25 06:05 68.07153 -53.82133 35554 ft 549 kts 93°
2026-04-25 06:05 68.06995 -53.61704 35549 ft 549 kts 94°
2026-04-25 06:06 68.06812 -53.41253 35541 ft 550 kts 94°
2026-04-25 06:06 68.06604 -53.20832 35525 ft 547 kts 94°
2026-04-25 06:07 68.06371 -53.00494 35534 ft 546 kts 95°
2026-04-25 06:07 68.06112 -52.80209 35529 ft 545 kts 95°
2026-04-25 06:08 68.05833 -52.60057 35542 ft 545 kts 95°
2026-04-25 06:08 68.05525 -52.39793 35530 ft 546 kts 95°
2026-04-25 06:09 68.05193 -52.19506 35484 ft 545 kts 96°
2026-04-25 06:09 68.04838 -51.99294 35517 ft 543 kts 96°
2026-04-25 06:10 68.04462 -51.79287 35535 ft 542 kts 96°
2026-04-25 06:10 68.04059 -51.59198 35532 ft 541 kts 96°
2026-04-25 06:11 68.03632 -51.39135 35538 ft 541 kts 96°
2026-04-25 06:11 68.03181 -51.19066 35532 ft 541 kts 97°
2026-04-25 06:12 68.02706 -50.99037 35513 ft 539 kts 97°
2026-04-25 06:12 68.02209 -50.79072 35538 ft 538 kts 97°
2026-04-25 06:13 68.01690 -50.59264 35530 ft 537 kts 97°
2026-04-25 06:14 68.00868 -50.29480 35534 ft 535 kts 98°
2026-04-25 06:14 68.00294 -50.09683 35518 ft 535 kts 98°
2026-04-25 06:15 68.00178 -49.89771 35460 ft 538 kts 88°
2026-04-25 06:15 68.00796 -49.69938 35509 ft 536 kts 87°
2026-04-25 06:16 68.01413 -49.50102 35500 ft 535 kts 88°
2026-04-25 06:16 68.01962 -49.30437 35492 ft 535 kts 89°
2026-04-25 06:17 68.02467 -49.10645 35468 ft 534 kts 89°
2026-04-25 06:17 68.02943 -48.90849 35467 ft 534 kts 89°
2026-04-25 06:18 68.03398 -48.71039 35462 ft 534 kts 89°
2026-04-25 06:18 68.03832 -48.51226 35401 ft 533 kts 89°
2026-04-25 06:19 68.04241 -48.31510 35429 ft 530 kts 89°
2026-04-25 06:19 68.04624 -48.11877 35426 ft 528 kts 89°
2026-04-25 06:20 68.04983 -47.92295 35438 ft 527 kts 90°
2026-04-25 06:20 68.05317 -47.72757 35432 ft 526 kts 90°
2026-04-25 06:21 68.05627 -47.53269 35421 ft 525 kts 91°
2026-04-25 06:21 68.05914 -47.33773 35421 ft 525 kts 91°
2026-04-25 06:22 68.06178 -47.14349 35422 ft 525 kts 91°
2026-04-25 06:22 68.06419 -46.94822 35407 ft 526 kts 91°
2026-04-25 06:23 68.06639 -46.75245 35434 ft 526 kts 91°
2026-04-25 06:23 68.06835 -46.55624 35407 ft 528 kts 92°
2026-04-25 06:24 68.07009 -46.35999 35392 ft 528 kts 92°
2026-04-25 06:24 68.07158 -46.16432 35384 ft 529 kts 93°
2026-04-25 06:25 68.07285 -45.96755 35388 ft 529 kts 93°
2026-04-25 06:25 68.07389 -45.77122 35359 ft 526 kts 93°
2026-04-25 06:26 68.07469 -45.57600 35351 ft 524 kts 93°
2026-04-25 06:26 68.07526 -45.38134 35340 ft 522 kts 93°
2026-04-25 06:27 68.07559 -45.18703 35326 ft 521 kts 94°
2026-04-25 06:27 68.07569 -44.99309 35323 ft 521 kts 94°
2026-04-25 06:28 68.07557 -44.79948 35300 ft 521 kts 94°
2026-04-25 06:28 68.07522 -44.60560 35291 ft 521 kts 94°
2026-04-25 06:29 68.07464 -44.41173 35282 ft 520 kts 94°
2026-04-25 06:29 68.07385 -44.21966 35259 ft 519 kts 94°
2026-04-25 06:30 68.07283 -44.02621 35279 ft 519 kts 94°
2026-04-25 06:30 68.07158 -43.83293 35267 ft 519 kts 94°
2026-04-25 06:31 68.07010 -43.63965 35239 ft 520 kts 95°
2026-04-25 06:31 68.06840 -43.44621 35225 ft 520 kts 95°
2026-04-25 06:32 68.06648 -43.25421 35233 ft 519 kts 95°
2026-04-25 06:32 68.06433 -43.06138 35210 ft 517 kts 94°
2026-04-25 06:33 68.06197 -42.86921 35197 ft 516 kts 94°
2026-04-25 06:33 68.05939 -42.67777 35182 ft 515 kts 95°
2026-04-25 06:34 68.05661 -42.48733 35182 ft 514 kts 95°
2026-04-25 06:34 68.05359 -42.29637 35167 ft 514 kts 95°
2026-04-25 06:35 68.05036 -42.10556 35163 ft 514 kts 95°
2026-04-25 06:35 68.04690 -41.91448 35163 ft 514 kts 95°
2026-04-25 06:36 68.04322 -41.72382 35151 ft 512 kts 95°
2026-04-25 06:36 68.04002 -41.56587 35142 ft 512 kts 95°
2026-04-25 06:37 68.03529 -41.34529 35148 ft 511 kts 96°
2026-04-25 06:37 68.03170 -41.18677 35142 ft 510 kts 96°
2026-04-25 06:38 68.02723 -40.99788 35134 ft 509 kts 96°
2026-04-25 06:38 68.02258 -40.81084 35132 ft 508 kts 96°
2026-04-25 06:39 68.01770 -40.62281 35130 ft 507 kts 97°
2026-04-25 06:39 68.01262 -40.43551 35129 ft 505 kts 97°
2026-04-25 06:40 68.00736 -40.24923 35128 ft 503 kts 97°
2026-04-25 06:40 68.00193 -40.06329 35131 ft 501 kts 97°
2026-04-25 06:41 67.99292 -39.88109 35178 ft 498 kts 104°
2026-04-25 06:41 67.98666 -39.78996 35396 ft 499 kts 105°
2026-04-25 06:41 67.98026 -39.69910 35708 ft 498 kts 105°
2026-04-25 06:41 67.97385 -39.60857 36044 ft 496 kts 105°
2026-04-25 06:42 67.96748 -39.51832 36377 ft 495 kts 105°
2026-04-25 06:42 67.96113 -39.42808 36652 ft 495 kts 104°
2026-04-25 06:42 67.95479 -39.33794 36900 ft 495 kts 104°
2026-04-25 06:42 67.94843 -39.24792 37077 ft 495 kts 105°
2026-04-25 06:43 67.94202 -39.15771 37122 ft 497 kts 105°
2026-04-25 06:43 67.92909 -38.97770 37162 ft 493 kts 105°
2026-04-25 06:44 67.91612 -38.80019 37168 ft 490 kts 105°
2026-04-25 06:44 67.90291 -38.62254 37170 ft 489 kts 105°
2026-04-25 06:45 67.88957 -38.44588 37186 ft 488 kts 106°
2026-04-25 06:45 67.87604 -38.26944 37181 ft 488 kts 106°
2026-04-25 06:46 67.86232 -38.09332 37155 ft 488 kts 107°
2026-04-25 06:46 67.84841 -37.91716 37165 ft 488 kts 107°
2026-04-25 06:47 67.83432 -37.74144 37184 ft 488 kts 107°
2026-04-25 06:47 67.82005 -37.56596 37169 ft 488 kts 107°
2026-04-25 06:48 67.80556 -37.39034 37159 ft 488 kts 107°
2026-04-25 06:48 67.79091 -37.21521 37162 ft 488 kts 107°
2026-04-25 06:49 67.77615 -37.04130 37156 ft 487 kts 108°
2026-04-25 06:49 67.76109 -36.86616 37137 ft 487 kts 108°
2026-04-25 06:50 67.74602 -36.69334 37114 ft 486 kts 108°
2026-04-25 06:50 67.73070 -36.51996 37119 ft 485 kts 108°
2026-04-25 06:51 67.71521 -36.34700 37120 ft 485 kts 108°
2026-04-25 06:51 67.69954 -36.17435 37056 ft 484 kts 109°
2026-04-25 06:52 67.68372 -36.00224 37057 ft 484 kts 109°
2026-04-25 06:52 67.66770 -35.83016 37057 ft 484 kts 109°
2026-04-25 06:53 67.65150 -35.65828 37004 ft 483 kts 109°
2026-04-25 06:53 67.63517 -35.48714 37012 ft 483 kts 109°
2026-04-25 06:54 67.61875 -35.31733 37022 ft 483 kts 109°
2026-04-25 06:54 67.60205 -35.14655 37039 ft 483 kts 109°
2026-04-25 06:55 67.58514 -34.97581 37034 ft 484 kts 110°
2026-04-25 06:55 67.56805 -34.80519 37066 ft 484 kts 110°
2026-04-25 06:56 67.55079 -34.63499 37065 ft 484 kts 110°
2026-04-25 06:56 67.53344 -34.46582 37120 ft 484 kts 110°
2026-04-25 06:57 67.51578 -34.29567 37176 ft 484 kts 110°
2026-04-25 06:57 67.49800 -34.12632 37181 ft 483 kts 110°
2026-04-25 06:58 67.48002 -33.95704 37247 ft 483 kts 110°
2026-04-25 06:58 67.46190 -33.78828 37288 ft 483 kts 111°
2026-04-25 06:59 67.44375 -33.62116 37290 ft 482 kts 111°
2026-04-25 06:59 67.42531 -33.45327 37281 ft 482 kts 111°
2026-04-25 07:00 67.40674 -33.28595 37293 ft 481 kts 111°
2026-04-25 07:00 67.38801 -33.11902 37320 ft 480 kts 111°
2026-04-25 07:01 67.36909 -32.95225 37308 ft 480 kts 111°
2026-04-25 07:01 67.35001 -32.78587 37300 ft 481 kts 111°
2026-04-25 07:02 67.33085 -32.62059 37317 ft 482 kts 112°
2026-04-25 07:02 67.31136 -32.45409 37302 ft 483 kts 112°
2026-04-25 07:03 67.29167 -32.28764 37292 ft 483 kts 112°
2026-04-25 07:03 67.27180 -32.12134 37291 ft 482 kts 112°
2026-04-25 07:04 67.25184 -31.95606 37295 ft 481 kts 112°
2026-04-25 07:04 67.23186 -31.79221 37288 ft 480 kts 112°
2026-04-25 07:05 67.21164 -31.62815 37291 ft 479 kts 112°
2026-04-25 07:05 67.19125 -31.46430 37282 ft 479 kts 112°
2026-04-25 07:06 67.17084 -31.30195 37290 ft 479 kts 113°
2026-04-25 07:06 67.15013 -31.13877 37283 ft 479 kts 113°
2026-04-25 07:07 67.12927 -30.97598 37288 ft 479 kts 113°
2026-04-25 07:07 67.10820 -30.81308 37285 ft 480 kts 113°
2026-04-25 07:08 67.08698 -30.65063 37275 ft 480 kts 113°
2026-04-25 07:08 67.06563 -30.48868 37281 ft 479 kts 113°
2026-04-25 07:09 67.04409 -30.32680 37270 ft 479 kts 114°
2026-04-25 07:09 67.02242 -30.16534 37260 ft 479 kts 114°
2026-04-25 07:10 67.00048 -30.00557 37270 ft 477 kts 116°
2026-04-25 07:10 66.97198 -29.85352 37274 ft 473 kts 122°
2026-04-25 07:11 66.94172 -29.70417 37265 ft 473 kts 122°
2026-04-25 07:11 66.91170 -29.55589 37259 ft 474 kts 122°
2026-04-25 07:12 66.88155 -29.40670 37262 ft 474 kts 122°
2026-04-25 07:12 66.83612 -29.18308 37227 ft 474 kts 122°
2026-04-25 07:13 66.80573 -29.03479 37244 ft 473 kts 122°
2026-04-25 07:13 66.77531 -28.88745 37250 ft 471 kts 122°
2026-04-25 07:14 66.74476 -28.74055 37247 ft 470 kts 122°
2026-04-25 07:14 66.71416 -28.59440 37239 ft 470 kts 122°
2026-04-25 07:15 66.68347 -28.44886 37239 ft 469 kts 122°
2026-04-25 07:15 66.65287 -28.30473 37220 ft 469 kts 122°
2026-04-25 07:16 66.62196 -28.16010 37239 ft 468 kts 122°
2026-04-25 07:16 66.59088 -28.01570 37231 ft 468 kts 122°
2026-04-25 07:17 66.55976 -27.87206 37234 ft 468 kts 123°
2026-04-25 07:17 66.52847 -27.72859 37234 ft 468 kts 123°
2026-04-25 07:18 66.49710 -27.58574 37231 ft 468 kts 123°
2026-04-25 07:18 66.46576 -27.44398 37231 ft 468 kts 123°
2026-04-25 07:19 66.43414 -27.30187 37224 ft 467 kts 123°
2026-04-25 07:19 66.40236 -27.15997 37232 ft 467 kts 123°
2026-04-25 07:20 66.37048 -27.01857 37231 ft 468 kts 123°
2026-04-25 07:20 66.33863 -26.87819 37229 ft 469 kts 123°
2026-04-25 07:21 66.30640 -26.73713 37230 ft 469 kts 123°
2026-04-25 07:21 66.27394 -26.59592 37230 ft 470 kts 123°
2026-04-25 07:22 66.24139 -26.45528 37242 ft 469 kts 123°
2026-04-25 07:22 66.20878 -26.31526 37218 ft 469 kts 123°
2026-04-25 07:23 66.17607 -26.17571 37217 ft 468 kts 123°
2026-04-25 07:23 66.14347 -26.03752 37244 ft 467 kts 124°
2026-04-25 07:24 66.11062 -25.89917 37237 ft 467 kts 124°
2026-04-25 07:24 66.07763 -25.76111 37233 ft 467 kts 124°
2026-04-25 07:25 66.04453 -25.62347 37232 ft 467 kts 124°
2026-04-25 07:25 66.01128 -25.48607 37240 ft 467 kts 124°
2026-04-25 07:26 65.97816 -25.35002 37242 ft 468 kts 124°
2026-04-25 07:26 65.95005 -25.23527 37236 ft 468 kts 124°
2026-04-25 07:27 65.91644 -25.09879 37241 ft 468 kts 124°
2026-04-25 07:27 65.88271 -24.96270 37236 ft 468 kts 124°
2026-04-25 07:28 65.84884 -24.82690 37238 ft 468 kts 124°
2026-04-25 07:28 65.81484 -24.69139 37241 ft 468 kts 124°
2026-04-25 07:29 65.78099 -24.55728 37243 ft 467 kts 125°
2026-04-25 07:29 65.74674 -24.42247 37234 ft 468 kts 125°
2026-04-25 07:30 65.71238 -24.28801 37245 ft 468 kts 125°
2026-04-25 07:30 65.67787 -24.15383 37249 ft 469 kts 125°
2026-04-25 07:31 65.64314 -24.01959 37234 ft 470 kts 125°
2026-04-25 07:31 65.60834 -23.88588 37249 ft 469 kts 125°
2026-04-25 07:32 65.57367 -23.75346 37261 ft 469 kts 125°
2026-04-25 07:32 65.53864 -23.62044 37266 ft 469 kts 125°
2026-04-25 07:33 65.50351 -23.48792 37261 ft 469 kts 126°
2026-04-25 07:33 65.46828 -23.35577 37261 ft 468 kts 126°
2026-04-25 07:34 65.43302 -23.22427 37249 ft 467 kts 126°
2026-04-25 07:34 65.39789 -23.09403 37253 ft 466 kts 126°
2026-04-25 07:35 65.36249 -22.96358 37263 ft 466 kts 126°
2026-04-25 07:35 65.32702 -22.83364 37263 ft 466 kts 126°
2026-04-25 07:36 65.29144 -22.70406 37266 ft 466 kts 126°
2026-04-25 07:36 65.25574 -22.57479 37264 ft 466 kts 126°
2026-04-25 07:37 65.21984 -22.44554 37245 ft 467 kts 126°
2026-04-25 07:37 65.18414 -22.31773 37264 ft 466 kts 126°
2026-04-25 07:38 65.14811 -22.18951 37274 ft 465 kts 126°
2026-04-25 07:38 65.11205 -22.06191 37271 ft 465 kts 126°
2026-04-25 07:39 65.07591 -21.93474 37273 ft 464 kts 126°
2026-04-25 07:39 65.03966 -21.80793 37278 ft 464 kts 126°
2026-04-25 07:40 65.00326 -21.68131 37287 ft 465 kts 127°
2026-04-25 07:40 64.96700 -21.55589 37287 ft 465 kts 127°
2026-04-25 07:41 64.93030 -21.42964 37283 ft 466 kts 127°
2026-04-25 07:41 64.89351 -21.30379 37292 ft 466 kts 127°
2026-04-25 07:42 64.85654 -21.17806 37293 ft 467 kts 127°
2026-04-25 07:42 64.81950 -21.05277 37291 ft 467 kts 127°
2026-04-25 07:43 64.78237 -20.92788 37290 ft 466 kts 127°
2026-04-25 07:43 64.74541 -20.80423 37300 ft 465 kts 127°
2026-04-25 07:44 64.70822 -20.68052 37295 ft 464 kts 127°
2026-04-25 07:44 64.67098 -20.55732 37317 ft 463 kts 127°
2026-04-25 07:45 64.63366 -20.43452 37300 ft 464 kts 127°
2026-04-25 07:45 64.59619 -20.31190 37310 ft 464 kts 127°
2026-04-25 07:46 64.55887 -20.19039 37329 ft 465 kts 127°
2026-04-25 07:46 64.52115 -20.06820 37327 ft 465 kts 127°
2026-04-25 07:47 64.48058 -19.95189 37327 ft 462 kts 136°
2026-04-25 07:47 64.43494 -19.84697 37314 ft 462 kts 137°
2026-04-25 07:48 64.38933 -19.74259 37331 ft 461 kts 136°
2026-04-25 07:48 64.34388 -19.63827 37331 ft 460 kts 136°
2026-04-25 07:49 64.29852 -19.53424 37326 ft 460 kts 136°
2026-04-25 07:49 64.25314 -19.43059 37329 ft 459 kts 136°
2026-04-25 07:50 64.20770 -19.32731 37344 ft 459 kts 136°
2026-04-25 07:50 64.16209 -19.22417 37352 ft 460 kts 136°
2026-04-25 07:51 64.11666 -19.12194 37348 ft 461 kts 136°
2026-04-25 07:51 64.07074 -19.01911 37358 ft 462 kts 137°
2026-04-25 07:52 64.02471 -18.91654 37357 ft 462 kts 136°
2026-04-25 07:52 63.97882 -18.81478 37367 ft 462 kts 136°
2026-04-25 07:53 63.93260 -18.71277 37371 ft 462 kts 137°
2026-04-25 07:53 63.88638 -18.61126 37365 ft 462 kts 137°
2026-04-25 07:54 63.84015 -18.51022 37369 ft 461 kts 137°
2026-04-25 07:54 63.79395 -18.40973 37364 ft 460 kts 137°
2026-04-25 07:55 63.74778 -18.30978 37368 ft 458 kts 137°
2026-04-25 07:55 63.70205 -18.21125 37364 ft 457 kts 137°
2026-04-25 07:56 63.65617 -18.11293 37368 ft 454 kts 137°
2026-04-25 07:56 63.61044 -18.01515 37360 ft 452 kts 137°
2026-04-25 07:57 63.56459 -17.91777 37355 ft 457 kts 137°
2026-04-25 07:57 63.51777 -17.81888 37371 ft 465 kts 137°
2026-04-25 07:58 63.47058 -17.71957 37361 ft 466 kts 137°
2026-04-25 07:58 63.42328 -17.62045 37361 ft 466 kts 137°
2026-04-25 07:59 63.37593 -17.52176 37357 ft 465 kts 137°
2026-04-25 07:59 63.32896 -17.42434 37358 ft 463 kts 138°
2026-04-25 08:00 63.28185 -17.32727 37361 ft 459 kts 138°
2026-04-25 08:00 63.23534 -17.23148 37348 ft 453 kts 138°
2026-04-25 08:01 63.18929 -17.13701 37348 ft 449 kts 138°
2026-04-25 08:01 63.14348 -17.04374 37347 ft 445 kts 138°
2026-04-25 08:02 63.09794 -16.95145 37355 ft 443 kts 138°
2026-04-25 08:02 63.05274 -16.86020 37352 ft 444 kts 138°
2026-04-25 08:03 63.00689 -16.76809 37359 ft 446 kts 138°
2026-04-25 08:03 62.96080 -16.67587 37344 ft 449 kts 138°
2026-04-25 08:04 62.91428 -16.58316 37360 ft 453 kts 138°
2026-04-25 08:04 62.86753 -16.49041 37352 ft 458 kts 138°
2026-04-25 08:05 62.81996 -16.39656 37352 ft 460 kts 138°
2026-04-25 08:05 62.77221 -16.30277 37336 ft 458 kts 138°
2026-04-25 08:06 62.72561 -16.21160 37335 ft 449 kts 138°
2026-04-25 08:06 62.67898 -16.12073 37341 ft 449 kts 138°
2026-04-25 08:07 62.63225 -16.03008 37343 ft 450 kts 138°
2026-04-25 08:07 62.58542 -15.93964 37335 ft 451 kts 138°
2026-04-25 08:08 62.53877 -15.84996 37337 ft 451 kts 138°
2026-04-25 08:08 62.49176 -15.76003 37335 ft 450 kts 138°
2026-04-25 08:09 62.44474 -15.67045 37327 ft 449 kts 138°
2026-04-25 08:09 62.39786 -15.58151 37328 ft 448 kts 138°
2026-04-25 08:10 62.35108 -15.49309 37325 ft 447 kts 138°
2026-04-25 08:10 62.30460 -15.40564 37325 ft 446 kts 138°
2026-04-25 08:11 62.25773 -15.31800 37311 ft 447 kts 138°
2026-04-25 08:11 62.21069 -15.23017 37333 ft 450 kts 138°
2026-04-25 08:12 62.16326 -15.14197 37329 ft 453 kts 139°
2026-04-25 08:12 62.11542 -15.05354 37328 ft 456 kts 139°
2026-04-25 08:13 62.06714 -14.96471 37319 ft 457 kts 139°
2026-04-25 08:14 61.99488 -14.83244 37317 ft 455 kts 139°
2026-04-25 08:14 61.94696 -14.74525 37308 ft 452 kts 139°
2026-04-25 08:15 61.90727 -14.67320 37312 ft 450 kts 139°
2026-04-25 08:15 61.85196 -14.57326 37307 ft 449 kts 139°
2026-04-25 08:16 61.81212 -14.50160 37305 ft 448 kts 139°
2026-04-25 08:16 61.76447 -14.41624 37314 ft 449 kts 139°
2026-04-25 08:17 61.71702 -14.33157 37299 ft 450 kts 139°
2026-04-25 08:17 61.66892 -14.24611 37317 ft 452 kts 139°
2026-04-25 08:18 61.62060 -14.16061 37313 ft 454 kts 139°
2026-04-25 08:18 61.57202 -14.07503 37311 ft 456 kts 139°
2026-04-25 08:19 61.52327 -13.98951 37305 ft 457 kts 139°
2026-04-25 08:19 61.47469 -13.90465 37307 ft 457 kts 139°
2026-04-25 08:20 61.42579 -13.81959 37306 ft 456 kts 139°
2026-04-25 08:20 61.37688 -13.73486 37303 ft 455 kts 139°
2026-04-25 08:21 61.32822 -13.65090 37297 ft 453 kts 139°
2026-04-25 08:21 61.28006 -13.56821 37295 ft 451 kts 139°
2026-04-25 08:22 61.23162 -13.48535 37291 ft 449 kts 139°
2026-04-25 08:22 61.18331 -13.40299 37313 ft 448 kts 139°
2026-04-25 08:23 61.13541 -13.32171 37293 ft 447 kts 139°
2026-04-25 08:23 61.08727 -13.24040 37285 ft 447 kts 139°
2026-04-25 08:24 61.03886 -13.15889 37303 ft 450 kts 139°
2026-04-25 08:24 60.99006 -13.07707 37293 ft 453 kts 139°
2026-04-25 08:25 60.94085 -12.99492 37303 ft 456 kts 140°
2026-04-25 08:25 60.89140 -12.91269 37302 ft 458 kts 139°
2026-04-25 08:26 60.84183 -12.83065 37293 ft 458 kts 140°
2026-04-25 08:26 60.79218 -12.74877 37300 ft 457 kts 140°
2026-04-25 08:27 60.74268 -12.66749 37284 ft 455 kts 140°
2026-04-25 08:27 60.69365 -12.58732 37290 ft 452 kts 139°
2026-04-25 08:28 60.64458 -12.50738 37288 ft 450 kts 140°
2026-04-25 08:28 60.59576 -12.42817 37284 ft 448 kts 140°
2026-04-25 08:29 60.54695 -12.34929 37293 ft 448 kts 140°
2026-04-25 08:29 60.49816 -12.27073 37288 ft 448 kts 140°
2026-04-25 08:30 60.44917 -12.19218 37276 ft 450 kts 140°
2026-04-25 08:30 60.40023 -12.11403 37300 ft 453 kts 140°
2026-04-25 08:31 60.35046 -12.03483 37295 ft 456 kts 140°
2026-04-25 08:31 60.30039 -11.95553 37278 ft 458 kts 140°
2026-04-25 08:32 60.25003 -11.87606 37289 ft 459 kts 140°
2026-04-25 08:32 60.19966 -11.79692 37284 ft 460 kts 140°
2026-04-25 08:33 60.14959 -11.71853 37286 ft 458 kts 140°
2026-04-25 08:33 60.09927 -11.64010 37277 ft 456 kts 140°
2026-04-25 08:34 60.04914 -11.56226 37272 ft 454 kts 140°
2026-04-25 08:34 59.99914 -11.48490 37275 ft 453 kts 141°
2026-04-25 08:35 59.94952 -11.40843 37284 ft 454 kts 141°
2026-04-25 08:35 59.89940 -11.33149 37281 ft 454 kts 140°
2026-04-25 08:36 59.84917 -11.25472 37273 ft 455 kts 141°
2026-04-25 08:36 59.79877 -11.17796 37266 ft 456 kts 141°
2026-04-25 08:37 59.74826 -11.10133 37269 ft 458 kts 141°
2026-04-25 08:37 59.69775 -11.02501 37273 ft 460 kts 141°
2026-04-25 08:38 59.64675 -10.94824 37279 ft 460 kts 140°
2026-04-25 08:38 59.59575 -10.87180 37253 ft 460 kts 141°
2026-04-25 08:39 59.54486 -10.79580 37260 ft 458 kts 141°
2026-04-25 08:39 59.49399 -10.72013 37267 ft 457 kts 141°
2026-04-25 08:40 59.44314 -10.64476 37267 ft 458 kts 141°
2026-04-25 08:40 59.39222 -10.56958 37251 ft 457 kts 141°
2026-04-25 08:41 59.34130 -10.49471 37247 ft 457 kts 141°
2026-04-25 08:41 59.29041 -10.42015 37260 ft 456 kts 141°
2026-04-25 08:42 59.23988 -10.34641 37253 ft 456 kts 141°
2026-04-25 08:42 59.18906 -10.27252 37241 ft 455 kts 141°
2026-04-25 08:43 59.13822 -10.19887 37257 ft 455 kts 141°
2026-04-25 08:43 59.08727 -10.12531 37231 ft 457 kts 142°
2026-04-25 08:44 59.03615 -10.05147 37256 ft 458 kts 140°
2026-04-25 08:44 58.99191 -9.96296 37258 ft 457 kts 126°
2026-04-25 08:45 58.95828 -9.85884 37251 ft 456 kts 117°
2026-04-25 08:45 58.92792 -9.75095 37246 ft 458 kts 118°
2026-04-25 08:46 58.89685 -9.64312 37249 ft 459 kts 118°
2026-04-25 08:46 58.86413 -9.53807 37242 ft 461 kts 126°
2026-04-25 08:47 58.82181 -9.44469 37232 ft 463 kts 136°
2026-04-25 08:47 58.77288 -9.36340 37254 ft 465 kts 139°
2026-04-25 08:48 58.72317 -9.28317 37248 ft 466 kts 139°
2026-04-25 08:48 58.67352 -9.20278 37235 ft 467 kts 139°
2026-04-25 08:49 58.62404 -9.12249 37239 ft 468 kts 139°
2026-04-25 08:49 58.57428 -9.04192 37245 ft 468 kts 139°
2026-04-25 08:50 58.52443 -8.96141 37233 ft 468 kts 139°
2026-04-25 08:50 58.47464 -8.88140 37236 ft 467 kts 139°
2026-04-25 08:51 58.42504 -8.80203 37242 ft 467 kts 139°
2026-04-25 08:51 58.37530 -8.72270 37234 ft 465 kts 139°
2026-04-25 08:52 58.32557 -8.64365 37232 ft 465 kts 139°
2026-04-25 08:52 58.27577 -8.56484 37232 ft 465 kts 139°
2026-04-25 08:53 58.22594 -8.48627 37230 ft 466 kts 139°
2026-04-25 08:53 58.17595 -8.40772 37222 ft 467 kts 139°
2026-04-25 08:54 58.12602 -8.32959 37231 ft 468 kts 140°
2026-04-25 08:54 58.07559 -8.25099 37227 ft 470 kts 140°
2026-04-25 08:55 58.02506 -8.17249 37225 ft 471 kts 140°
2026-04-25 08:55 57.97424 -8.09384 37219 ft 472 kts 140°
2026-04-25 08:56 57.92343 -8.01554 37223 ft 472 kts 140°
2026-04-25 08:56 57.87264 -7.93755 37216 ft 471 kts 140°
2026-04-25 08:57 57.82181 -7.85978 37214 ft 472 kts 140°
2026-04-25 08:57 57.77087 -7.78211 37214 ft 472 kts 140°
2026-04-25 08:58 57.71968 -7.70441 37213 ft 473 kts 140°
2026-04-25 08:58 57.66854 -7.62704 37220 ft 473 kts 140°
2026-04-25 08:59 57.61734 -7.54988 37204 ft 472 kts 140°
2026-04-25 08:59 57.56623 -7.47315 37210 ft 470 kts 140°
2026-04-25 09:00 57.51565 -7.39750 37206 ft 469 kts 140°
2026-04-25 09:00 57.46474 -7.32161 37214 ft 468 kts 141°
2026-04-25 09:01 57.41394 -7.24617 37224 ft 466 kts 141°
2026-04-25 09:01 57.36335 -7.17132 37195 ft 464 kts 141°
2026-04-25 09:02 57.31247 -7.09631 37214 ft 472 kts 141°
2026-04-25 09:02 57.26087 -7.02053 37207 ft 477 kts 141°
2026-04-25 09:03 57.20879 -6.94433 37198 ft 477 kts 141°
2026-04-25 09:03 57.15687 -6.86863 37196 ft 471 kts 141°
2026-04-25 09:04 57.10599 -6.79470 37193 ft 464 kts 141°
2026-04-25 09:04 57.05516 -6.72113 37200 ft 465 kts 142°
2026-04-25 09:05 57.01277 -6.65997 37197 ft 466 kts 142°
2026-04-25 09:05 56.96162 -6.58643 37195 ft 467 kts 142°
2026-04-25 09:06 56.91039 -6.51302 37198 ft 468 kts 142°
2026-04-25 09:06 56.85902 -6.43968 37192 ft 468 kts 142°
2026-04-25 09:07 56.80768 -6.36664 37193 ft 468 kts 142°
2026-04-25 09:07 56.75658 -6.29421 37193 ft 467 kts 142°
2026-04-25 09:08 56.70526 -6.22173 37193 ft 466 kts 142°
2026-04-25 09:08 56.65395 -6.14949 37203 ft 465 kts 142°
2026-04-25 09:09 56.60274 -6.07767 37191 ft 464 kts 142°
2026-04-25 09:09 56.55198 -6.00673 37190 ft 463 kts 142°
2026-04-25 09:10 56.50101 -5.93574 37190 ft 462 kts 142°
2026-04-25 09:10 56.45008 -5.86506 37194 ft 461 kts 142°
2026-04-25 09:11 56.37373 -5.75953 37184 ft 460 kts 143°
2026-04-25 09:11 56.32282 -5.68948 37191 ft 460 kts 143°
2026-04-25 09:12 56.27182 -5.61956 37206 ft 461 kts 143°
2026-04-25 09:12 56.22071 -5.54971 37198 ft 462 kts 143°
2026-04-25 09:13 56.16944 -5.47989 37203 ft 463 kts 143°
2026-04-25 09:13 56.11807 -5.41016 37200 ft 463 kts 143°
2026-04-25 09:14 56.06702 -5.34112 37194 ft 462 kts 143°
2026-04-25 09:14 56.01571 -5.27195 37195 ft 461 kts 143°
2026-04-25 09:15 55.96449 -5.20314 37207 ft 460 kts 143°
2026-04-25 09:15 55.91332 -5.13464 37207 ft 460 kts 143°
2026-04-25 09:16 55.86201 -5.06617 37190 ft 459 kts 143°
2026-04-25 09:16 55.81104 -4.99839 37206 ft 461 kts 143°
2026-04-25 09:17 55.73351 -4.89574 37224 ft 465 kts 144°
2026-04-25 09:18 55.68139 -4.82700 37227 ft 467 kts 144°
2026-04-25 09:18 55.62914 -4.75833 37218 ft 467 kts 144°
2026-04-25 09:19 55.57697 -4.69002 37208 ft 465 kts 144°
2026-04-25 09:19 55.52545 -4.62275 37208 ft 462 kts 144°
2026-04-25 09:20 55.47381 -4.55558 37209 ft 460 kts 144°
2026-04-25 09:20 55.42230 -4.48879 37212 ft 459 kts 144°
2026-04-25 09:21 55.37090 -4.42236 37201 ft 458 kts 144°
2026-04-25 09:21 55.31939 -4.35601 37205 ft 459 kts 144°
2026-04-25 09:22 55.26782 -4.28981 37211 ft 461 kts 144°
2026-04-25 09:22 55.21583 -4.22329 37208 ft 463 kts 145°
2026-04-25 09:23 55.16401 -4.15720 37212 ft 464 kts 145°
2026-04-25 09:23 55.11169 -4.09068 37210 ft 465 kts 145°
2026-04-25 09:24 55.05931 -4.02432 37210 ft 465 kts 145°
2026-04-25 09:24 55.00701 -3.95827 37211 ft 464 kts 145°
2026-04-25 09:25 54.95474 -3.89247 37212 ft 463 kts 145°
2026-04-25 09:25 54.90253 -3.82697 37213 ft 462 kts 145°
2026-04-25 09:26 54.85039 -3.76177 37206 ft 462 kts 145°
2026-04-25 09:26 54.79818 -3.69670 37211 ft 462 kts 145°
2026-04-25 09:27 54.74627 -3.63221 37211 ft 463 kts 146°
2026-04-25 09:27 54.69387 -3.56732 37206 ft 463 kts 146°
2026-04-25 09:28 54.64132 -3.50245 37208 ft 464 kts 146°
2026-04-25 09:28 54.58865 -3.43764 37201 ft 465 kts 146°
2026-04-25 09:29 54.53593 -3.37299 37205 ft 466 kts 146°
2026-04-25 09:29 54.48308 -3.30838 37199 ft 466 kts 146°
2026-04-25 09:30 54.43016 -3.24388 37200 ft 466 kts 146°
2026-04-25 09:30 54.37719 -3.17955 37199 ft 466 kts 146°
2026-04-25 09:31 54.32414 -3.11532 37213 ft 467 kts 146°
2026-04-25 09:31 54.27132 -3.05156 37213 ft 467 kts 146°
2026-04-25 09:32 54.21812 -2.98753 37221 ft 467 kts 146°
2026-04-25 09:32 54.16346 -2.92636 37211 ft 466 kts 153°
2026-04-25 09:33 54.10477 -2.88195 37219 ft 464 kts 159°
2026-04-25 09:33 54.04507 -2.83960 37216 ft 465 kts 159°
2026-04-25 09:34 53.98510 -2.79845 37197 ft 464 kts 164°
2026-04-25 09:34 53.92348 -2.76598 37216 ft 464 kts 165°
2026-04-25 09:35 53.86163 -2.73395 37219 ft 465 kts 165°
2026-04-25 09:35 53.79973 -2.70157 37218 ft 465 kts 165°
2026-04-25 09:36 53.73827 -2.66930 37217 ft 465 kts 165°
2026-04-25 09:36 53.67650 -2.63691 37212 ft 465 kts 165°
2026-04-25 09:37 53.61465 -2.60459 37222 ft 465 kts 165°
2026-04-25 09:37 53.55275 -2.57235 37215 ft 465 kts 165°
2026-04-25 09:38 53.49083 -2.54021 37224 ft 465 kts 165°
2026-04-25 09:38 53.42885 -2.50813 37216 ft 465 kts 165°
2026-04-25 09:39 53.36729 -2.47636 37217 ft 466 kts 165°
2026-04-25 09:39 53.30533 -2.44449 37211 ft 466 kts 165°
2026-04-25 09:40 53.21237 -2.39684 37210 ft 466 kts 165°
2026-04-25 09:40 53.15039 -2.36520 37217 ft 466 kts 165°
2026-04-25 09:41 53.08844 -2.33365 37080 ft 468 kts 165°
2026-04-25 09:41 53.05694 -2.31713 36332 ft 477 kts 162°
2026-04-25 09:41 53.02631 -2.29628 35685 ft 475 kts 157°
2026-04-25 09:42 52.99723 -2.27130 34962 ft 476 kts 151°
2026-04-25 09:42 52.96943 -2.24190 34490 ft 470 kts 149°
2026-04-25 09:42 52.94210 -2.21268 33947 ft 465 kts 149°
2026-04-25 09:42 52.91500 -2.18390 33419 ft 460 kts 150°
2026-04-25 09:43 52.88820 -2.15563 32942 ft 454 kts 150°
2026-04-25 09:43 52.86164 -2.12778 32461 ft 449 kts 150°
2026-04-25 09:43 52.83535 -2.10032 32005 ft 444 kts 150°
2026-04-25 09:43 52.80938 -2.07329 31554 ft 439 kts 150°
2026-04-25 09:44 52.78361 -2.04651 31077 ft 435 kts 150°
2026-04-25 09:44 52.75810 -2.02003 30642 ft 431 kts 150°
2026-04-25 09:44 52.73282 -1.99383 30164 ft 427 kts 150°
2026-04-25 09:44 52.70777 -1.96789 29662 ft 422 kts 150°
2026-04-25 09:45 52.68301 -1.94228 29198 ft 417 kts 150°
2026-04-25 09:45 52.65884 -1.91733 28749 ft 413 kts 150°
2026-04-25 09:45 52.63462 -1.89235 28292 ft 409 kts 150°
2026-04-25 09:45 52.61032 -1.86733 27820 ft 405 kts 150°
2026-04-25 09:46 52.58688 -1.84321 27369 ft 401 kts 150°
2026-04-25 09:46 52.56330 -1.81899 26915 ft 398 kts 150°
2026-04-25 09:46 52.53983 -1.79493 26476 ft 395 kts 150°
2026-04-25 09:46 52.51664 -1.77117 26046 ft 392 kts 150°
2026-04-25 09:47 52.49358 -1.74756 25608 ft 389 kts 150°
2026-04-25 09:47 52.47066 -1.72413 25174 ft 387 kts 150°
2026-04-25 09:47 52.44789 -1.70089 24753 ft 385 kts 150°
2026-04-25 09:47 52.42519 -1.67776 24337 ft 383 kts 150°
2026-04-25 09:48 52.40259 -1.65474 23896 ft 382 kts 150°
2026-04-25 09:48 52.38010 -1.63186 23398 ft 380 kts 150°